Time,TemperatureF,DewpointF,PressureIn,WindDirection,WindDirectionDegrees,WindSpeedMPH,WindSpeedGustMPH,Humidity,HourlyPrecipIn,Conditions,Clouds,dailyrainin,SoftwareType,DateUTC
2013-04-02 00:00:00,30.6,20.6,30.18,NW,311,0.0,0.0,66,0.00,,,0.00,Wunderground v.1.15,2013-04-02 04:00:00,
2013-04-02 00:01:00,30.6,20.6,30.18,NW,311,0.0,0.0,66,0.00,,,0.00,Wunderground v.1.15,2013-04-02 04:01:00,
2013-04-02 00:02:00,30.6,20.6,30.18,NW,311,0.0,0.0,66,0.00,,,0.00,Wunderground v.1.15,2013-04-02 04:02:00,
2013-04-02 00:03:00,30.6,20.6,30.18,NW,311,0.0,0.0,66,0.00,,,0.00,Wunderground v.1.15,2013-04-02 04:03:00,
2013-04-02 00:07:00,30.6,20.2,30.18,NW,311,0.0,0.0,65,0.00,,,0.00,Wunderground v.1.15,2013-04-02 04:07:00,
2013-04-02 00:08:00,30.6,20.6,30.18,NW,311,0.0,0.0,66,0.00,,,0.00,Wunderground v.1.15,2013-04-02 04:08:00,
2013-04-02 00:10:00,30.6,20.9,30.18,NW,311,0.0,0.0,67,0.00,,,0.00,Wunderground v.1.15,2013-04-02 04:10:00,
2013-04-02 00:13:00,30.6,20.9,30.18,NW,311,0.0,0.0,67,0.00,,,0.00,Wunderground v.1.15,2013-04-02 04:13:00,
2013-04-02 00:15:00,30.5,21.2,30.18,NW,311,0.0,0.0,68,0.00,,,0.00,Wunderground v.1.15,2013-04-02 04:15:00,
2013-04-02 00:18:00,30.5,21.2,30.18,NW,311,0.0,0.0,68,0.00,,,0.00,Wunderground v.1.15,2013-04-02 04:18:00,
2013-04-02 00:19:00,30.5,21.2,30.18,NW,311,0.0,0.0,68,0.00,,,0.00,Wunderground v.1.15,2013-04-02 04:19:00,
2013-04-02 00:20:00,30.3,21.0,30.18,NW,311,0.0,0.0,68,0.00,,,0.00,Wunderground v.1.15,2013-04-02 04:20:00,
2013-04-02 00:24:00,30.3,21.7,30.18,NW,311,0.0,0.0,70,0.00,,,0.00,Wunderground v.1.15,2013-04-02 04:24:00,
2013-04-02 00:25:00,30.3,21.7,30.18,NW,311,0.0,0.0,70,0.00,,,0.00,Wunderground v.1.15,2013-04-02 04:25:00,
2013-04-02 00:27:00,30.3,21.7,30.18,NW,311,0.0,0.0,70,0.00,,,0.00,Wunderground v.1.15,2013-04-02 04:27:00,
2013-04-02 00:30:00,30.3,21.7,30.18,NW,311,0.0,0.0,70,0.00,,,0.00,Wunderground v.1.15,2013-04-02 04:30:00,
2013-04-02 00:32:00,30.3,21.7,30.18,NW,311,0.0,0.0,70,0.00,,,0.00,Wunderground v.1.15,2013-04-02 04:32:00,
2013-04-02 00:33:00,30.3,21.7,30.18,NW,311,0.0,0.0,70,0.00,,,0.00,Wunderground v.1.15,2013-04-02 04:33:00,
2013-04-02 00:38:00,30.2,21.2,30.18,NW,311,0.0,0.0,69,0.00,,,0.00,Wunderground v.1.15,2013-04-02 04:38:00,
2013-04-02 00:39:00,30.2,21.2,30.18,NW,311,0.0,0.0,69,0.00,,,0.00,Wunderground v.1.15,2013-04-02 04:39:00,
2013-04-02 00:40:00,30.0,21.4,30.18,NW,311,0.0,0.0,70,0.00,,,0.00,Wunderground v.1.15,2013-04-02 04:40:00,
2013-04-02 00:46:00,29.8,20.5,30.19,NW,311,0.0,0.0,68,0.00,,,0.00,Wunderground v.1.15,2013-04-02 04:46:00,
2013-04-02 00:47:00,29.8,20.5,30.19,NW,311,0.0,0.0,68,0.00,,,0.00,Wunderground v.1.15,2013-04-02 04:47:00,
2013-04-02 00:49:00,29.8,20.2,30.19,NW,311,0.0,0.0,67,0.00,,,0.00,Wunderground v.1.15,2013-04-02 04:49:00,
2013-04-02 00:52:00,29.8,20.2,30.19,NW,311,0.0,0.0,67,0.00,,,0.00,Wunderground v.1.15,2013-04-02 04:52:00,
2013-04-02 00:54:00,29.8,20.2,30.19,NW,311,0.0,0.0,67,0.00,,,0.00,Wunderground v.1.15,2013-04-02 04:54:00,
2013-04-02 00:55:00,29.8,20.2,30.19,NW,311,0.0,0.0,67,0.00,,,0.00,Wunderground v.1.15,2013-04-02 04:55:00,
2013-04-02 00:59:00,29.9,20.3,30.19,NW,311,0.0,0.0,67,0.00,,,0.00,Wunderground v.1.15,2013-04-02 04:59:00,
2013-04-02 01:00:00,29.9,19.9,30.19,NW,311,0.0,0.0,66,0.00,,,0.00,Wunderground v.1.15,2013-04-02 05:00:00,
2013-04-02 01:04:00,29.9,19.9,30.19,NW,311,0.0,0.0,66,0.00,,,0.00,Wunderground v.1.15,2013-04-02 05:04:00,
2013-04-02 01:05:00,29.9,19.9,30.19,NW,311,0.0,0.0,66,0.00,,,0.00,Wunderground v.1.15,2013-04-02 05:05:00,
2013-04-02 01:06:00,29.9,20.3,30.19,NW,311,0.0,0.0,67,0.00,,,0.00,Wunderground v.1.15,2013-04-02 05:06:00,
2013-04-02 01:10:00,29.9,20.3,30.19,NW,311,0.0,0.0,67,0.00,,,0.00,Wunderground v.1.15,2013-04-02 05:10:00,
2013-04-02 01:13:00,29.9,20.6,30.19,NW,311,0.0,0.0,68,0.00,,,0.00,Wunderground v.1.15,2013-04-02 05:13:00,
2013-04-02 01:16:00,29.8,20.5,30.20,NW,311,0.0,0.0,68,0.00,,,0.00,Wunderground v.1.15,2013-04-02 05:16:00,
2013-04-02 01:17:00,29.8,20.9,30.20,NW,311,0.0,0.0,69,0.00,,,0.00,Wunderground v.1.15,2013-04-02 05:17:00,
2013-04-02 01:20:00,29.8,20.9,30.20,NW,311,0.0,0.0,69,0.00,,,0.00,Wunderground v.1.15,2013-04-02 05:20:00,
2013-04-02 01:23:00,29.6,20.7,30.20,NW,311,0.0,0.0,69,0.00,,,0.00,Wunderground v.1.15,2013-04-02 05:23:00,
2013-04-02 01:24:00,29.6,20.7,30.20,NW,311,0.0,0.0,69,0.00,,,0.00,Wunderground v.1.15,2013-04-02 05:24:00,
2013-04-02 01:25:00,29.5,20.6,30.20,NW,311,0.0,0.0,69,0.00,,,0.00,Wunderground v.1.15,2013-04-02 05:25:00,
2013-04-02 01:29:00,29.3,20.4,30.20,NW,311,0.0,0.0,69,0.00,,,0.00,Wunderground v.1.15,2013-04-02 05:29:00,
2013-04-02 01:30:00,29.3,20.7,30.20,NW,311,0.0,0.0,70,0.00,,,0.00,Wunderground v.1.15,2013-04-02 05:30:00,
2013-04-02 01:31:00,29.3,20.7,30.20,NW,311,0.0,0.0,70,0.00,,,0.00,Wunderground v.1.15,2013-04-02 05:31:00,
2013-04-02 01:32:00,29.3,20.7,30.20,NW,311,0.0,0.0,70,0.00,,,0.00,Wunderground v.1.15,2013-04-02 05:32:00,
2013-04-02 01:36:00,29.2,20.6,30.20,NW,311,0.0,0.0,70,0.00,,,0.00,Wunderground v.1.15,2013-04-02 05:36:00,
2013-04-02 01:38:00,29.2,20.6,30.20,NW,311,0.0,0.0,70,0.00,,,0.00,Wunderground v.1.15,2013-04-02 05:38:00,
2013-04-02 01:41:00,29.0,20.4,30.20,NW,311,0.0,0.0,70,0.00,,,0.00,Wunderground v.1.15,2013-04-02 05:41:00,
2013-04-02 01:45:00,29.0,20.1,30.20,NW,311,0.0,0.0,69,0.00,,,0.00,Wunderground v.1.15,2013-04-02 05:45:00,
2013-04-02 01:47:00,28.9,20.0,30.20,NW,311,0.0,0.0,69,0.00,,,0.00,Wunderground v.1.15,2013-04-02 05:47:00,
2013-04-02 01:52:00,28.6,20.1,30.20,NW,311,0.0,0.0,70,0.00,,,0.00,Wunderground v.1.15,2013-04-02 05:52:00,
2013-04-02 01:53:00,28.4,19.9,30.20,NW,311,0.0,0.0,70,0.00,,,0.00,Wunderground v.1.15,2013-04-02 05:53:00,
2013-04-02 01:54:00,28.4,19.9,30.20,NW,311,0.0,0.0,70,0.00,,,0.00,Wunderground v.1.15,2013-04-02 05:54:00,
2013-04-02 01:55:00,28.4,20.2,30.20,NW,311,0.0,0.0,71,0.00,,,0.00,Wunderground v.1.15,2013-04-02 05:55:00,
2013-04-02 02:00:00,28.1,19.6,30.21,NW,311,0.0,0.0,70,0.00,,,0.00,Wunderground v.1.15,2013-04-02 06:00:00,
2013-04-02 02:01:00,28.1,19.2,30.21,NW,311,0.0,0.0,69,0.00,,,0.00,Wunderground v.1.15,2013-04-02 06:01:00,
2013-04-02 02:02:00,28.1,19.2,30.21,NW,311,0.0,0.0,69,0.00,,,0.00,Wunderground v.1.15,2013-04-02 06:02:00,
2013-04-02 02:03:00,28.1,19.2,30.21,NW,311,0.0,0.0,69,0.00,,,0.00,Wunderground v.1.15,2013-04-02 06:03:00,
2013-04-02 02:08:00,28.1,18.9,30.21,NW,311,0.0,0.0,68,0.00,,,0.00,Wunderground v.1.15,2013-04-02 06:08:00,
2013-04-02 02:09:00,28.1,18.9,30.21,NW,311,0.0,0.0,68,0.00,,,0.00,Wunderground v.1.15,2013-04-02 06:09:00,
2013-04-02 02:10:00,28.1,18.9,30.21,NW,311,0.0,0.0,68,0.00,,,0.00,Wunderground v.1.15,2013-04-02 06:10:00,
2013-04-02 02:15:00,28.1,19.9,30.22,NW,311,0.0,0.0,71,0.00,,,0.00,Wunderground v.1.15,2013-04-02 06:15:00,
2013-04-02 02:17:00,28.1,19.9,30.22,NW,311,0.0,0.0,71,0.00,,,0.00,Wunderground v.1.15,2013-04-02 06:17:00,
2013-04-02 02:19:00,28.1,20.2,30.22,NW,311,0.0,0.0,72,0.00,,,0.00,Wunderground v.1.15,2013-04-02 06:19:00,
2013-04-02 02:22:00,28.1,20.2,30.22,NW,311,0.0,0.0,72,0.00,,,0.00,Wunderground v.1.15,2013-04-02 06:22:00,
2013-04-02 02:25:00,28.0,20.5,30.22,NW,311,0.0,0.0,73,0.00,,,0.00,Wunderground v.1.15,2013-04-02 06:25:00,
2013-04-02 02:26:00,28.0,20.5,30.22,NW,311,0.0,0.0,73,0.00,,,0.00,Wunderground v.1.15,2013-04-02 06:26:00,
2013-04-02 02:29:00,28.0,20.8,30.22,NW,311,0.0,0.0,74,0.00,,,0.00,Wunderground v.1.15,2013-04-02 06:29:00,
2013-04-02 02:32:00,28.0,20.8,30.22,NW,311,0.0,0.0,74,0.00,,,0.00,Wunderground v.1.15,2013-04-02 06:32:00,
2013-04-02 02:34:00,28.0,20.8,30.22,NW,311,0.0,0.0,74,0.00,,,0.00,Wunderground v.1.15,2013-04-02 06:34:00,
2013-04-02 02:35:00,28.0,20.8,30.22,NW,311,0.0,0.0,74,0.00,,,0.00,Wunderground v.1.15,2013-04-02 06:35:00,
2013-04-02 02:41:00,28.0,20.8,30.22,NW,311,0.0,0.0,74,0.00,,,0.00,Wunderground v.1.15,2013-04-02 06:41:00,
2013-04-02 02:43:00,28.0,20.8,30.22,NW,311,0.0,0.0,74,0.00,,,0.00,Wunderground v.1.15,2013-04-02 06:43:00,
2013-04-02 02:46:00,27.8,20.6,30.22,NW,311,0.0,0.0,74,0.00,,,0.00,Wunderground v.1.15,2013-04-02 06:46:00,
2013-04-02 02:47:00,27.8,20.6,30.22,NW,311,0.0,0.0,74,0.00,,,0.00,Wunderground v.1.15,2013-04-02 06:47:00,
2013-04-02 02:49:00,27.8,20.6,30.22,NW,311,0.0,0.0,74,0.00,,,0.00,Wunderground v.1.15,2013-04-02 06:49:00,
2013-04-02 02:52:00,27.7,20.8,30.22,NW,311,0.0,0.0,75,0.00,,,0.00,Wunderground v.1.15,2013-04-02 06:52:00,
2013-04-02 02:54:00,27.7,20.8,30.22,NW,311,0.0,0.0,75,0.00,,,0.00,Wunderground v.1.15,2013-04-02 06:54:00,
2013-04-02 02:55:00,27.7,20.8,30.22,NW,311,0.0,0.0,75,0.00,,,0.00,Wunderground v.1.15,2013-04-02 06:55:00,
2013-04-02 02:56:00,27.5,20.6,30.22,NW,311,0.0,0.0,75,0.00,,,0.00,Wunderground v.1.15,2013-04-02 06:56:00,
2013-04-02 03:01:00,27.4,20.5,30.22,NW,311,0.0,0.0,75,0.00,,,0.00,Wunderground v.1.15,2013-04-02 07:01:00,
2013-04-02 03:02:00,27.4,20.5,30.22,NW,311,0.0,0.0,75,0.00,,,0.00,Wunderground v.1.15,2013-04-02 07:02:00,
2013-04-02 03:04:00,27.4,20.5,30.22,NW,311,0.0,0.0,75,0.00,,,0.00,Wunderground v.1.15,2013-04-02 07:04:00,
2013-04-02 03:06:00,27.2,20.3,30.22,NW,311,0.0,0.0,75,0.00,,,0.00,Wunderground v.1.15,2013-04-02 07:06:00,
2013-04-02 03:07:00,27.2,20.3,30.22,NW,311,0.0,0.0,75,0.00,,,0.00,Wunderground v.1.15,2013-04-02 07:07:00,
2013-04-02 03:10:00,27.1,20.2,30.22,NW,311,0.0,0.0,75,0.00,,,0.00,Wunderground v.1.15,2013-04-02 07:10:00,
2013-04-02 03:13:00,26.9,20.0,30.22,NW,311,0.0,0.0,75,0.00,,,0.00,Wunderground v.1.15,2013-04-02 07:13:00,
2013-04-02 03:14:00,26.9,20.0,30.22,NW,311,0.0,0.0,75,0.00,,,0.00,Wunderground v.1.15,2013-04-02 07:14:00,
2013-04-02 03:15:00,26.9,20.0,30.22,NW,311,0.0,0.0,75,0.00,,,0.00,Wunderground v.1.15,2013-04-02 07:15:00,
2013-04-02 03:16:00,26.8,19.9,30.22,NW,311,0.0,0.0,75,0.00,,,0.00,Wunderground v.1.15,2013-04-02 07:16:00,
2013-04-02 03:22:00,26.8,20.2,30.22,NW,311,0.0,0.0,76,0.00,,,0.00,Wunderground v.1.15,2013-04-02 07:22:00,
2013-04-02 03:24:00,26.6,20.4,30.22,NW,311,0.0,0.0,77,0.00,,,0.00,Wunderground v.1.15,2013-04-02 07:24:00,
2013-04-02 03:27:00,26.6,20.4,30.22,NW,311,0.0,0.0,77,0.00,,,0.00,Wunderground v.1.15,2013-04-02 07:27:00,
2013-04-02 03:28:00,26.6,20.4,30.22,NW,311,0.0,0.0,77,0.00,,,0.00,Wunderground v.1.15,2013-04-02 07:28:00,
2013-04-02 03:29:00,26.6,20.4,30.22,NW,311,0.0,0.0,77,0.00,,,0.00,Wunderground v.1.15,2013-04-02 07:29:00,
2013-04-02 03:30:00,26.6,20.4,30.22,NW,311,0.0,0.0,77,0.00,,,0.00,Wunderground v.1.15,2013-04-02 07:30:00,
2013-04-02 03:34:00,26.5,20.3,30.22,NW,311,0.0,0.0,77,0.00,,,0.00,Wunderground v.1.15,2013-04-02 07:34:00,
2013-04-02 03:35:00,26.5,20.3,30.22,NW,311,0.0,0.0,77,0.00,,,0.00,Wunderground v.1.15,2013-04-02 07:35:00,
2013-04-02 03:40:00,26.3,20.4,30.22,NW,311,0.0,0.0,78,0.00,,,0.00,Wunderground v.1.15,2013-04-02 07:40:00,
2013-04-02 03:42:00,26.3,20.4,30.22,NW,311,0.0,0.0,78,0.00,,,0.00,Wunderground v.1.15,2013-04-02 07:42:00,
2013-04-02 03:45:00,26.3,20.4,30.22,NW,311,0.0,0.0,78,0.00,,,0.00,Wunderground v.1.15,2013-04-02 07:45:00,
2013-04-02 03:46:00,26.3,20.4,30.22,NW,311,0.0,0.0,78,0.00,,,0.00,Wunderground v.1.15,2013-04-02 07:46:00,
2013-04-02 03:48:00,26.2,20.3,30.22,NW,311,0.0,0.0,78,0.00,,,0.00,Wunderground v.1.15,2013-04-02 07:48:00,
2013-04-02 03:50:00,26.3,20.4,30.22,NW,311,0.0,0.0,78,0.00,,,0.00,Wunderground v.1.15,2013-04-02 07:50:00,
2013-04-02 03:53:00,26.3,20.4,30.22,NW,311,0.0,0.0,78,0.00,,,0.00,Wunderground v.1.15,2013-04-02 07:53:00,
2013-04-02 03:54:00,26.2,20.3,30.22,NW,311,0.0,0.0,78,0.00,,,0.00,Wunderground v.1.15,2013-04-02 07:54:00,
2013-04-02 03:55:00,26.2,20.3,30.22,NW,311,0.0,0.0,78,0.00,,,0.00,Wunderground v.1.15,2013-04-02 07:55:00,
2013-04-02 03:59:00,26.2,20.3,30.22,NW,311,0.0,0.0,78,0.00,,,0.00,Wunderground v.1.15,2013-04-02 07:59:00,
2013-04-02 04:00:00,26.1,20.2,30.22,NW,311,0.0,0.0,78,0.00,,,0.00,Wunderground v.1.15,2013-04-02 08:00:00,
2013-04-02 04:02:00,26.1,20.2,30.22,NW,311,0.0,0.0,78,0.00,,,0.00,Wunderground v.1.15,2013-04-02 08:02:00,
2013-04-02 04:06:00,26.1,20.2,30.22,NW,311,0.0,0.0,78,0.00,,,0.00,Wunderground v.1.15,2013-04-02 08:06:00,
2013-04-02 04:07:00,26.1,20.2,30.22,NW,311,0.0,0.0,78,0.00,,,0.00,Wunderground v.1.15,2013-04-02 08:07:00,
2013-04-02 04:08:00,25.9,20.0,30.22,NW,311,0.0,0.0,78,0.00,,,0.00,Wunderground v.1.15,2013-04-02 08:08:00,
2013-04-02 04:11:00,25.9,20.0,30.22,NW,311,0.0,0.0,78,0.00,,,0.00,Wunderground v.1.15,2013-04-02 08:11:00,
2013-04-02 04:13:00,25.9,20.0,30.22,NW,311,0.0,0.0,78,0.00,,,0.00,Wunderground v.1.15,2013-04-02 08:13:00,
2013-04-02 04:18:00,25.8,20.2,30.23,NW,311,0.0,0.0,79,0.00,,,0.00,Wunderground v.1.15,2013-04-02 08:18:00,
2013-04-02 04:19:00,25.6,19.7,30.23,NW,311,0.0,0.0,78,0.00,,,0.00,Wunderground v.1.15,2013-04-02 08:19:00,
2013-04-02 04:20:00,25.6,20.0,30.23,NW,311,0.0,0.0,79,0.00,,,0.00,Wunderground v.1.15,2013-04-02 08:20:00,
2013-04-02 04:21:00,25.6,20.0,30.23,NW,311,0.0,0.0,79,0.00,,,0.00,Wunderground v.1.15,2013-04-02 08:21:00,
2013-04-02 04:23:00,25.6,19.7,30.23,NW,311,0.0,0.0,78,0.00,,,0.00,Wunderground v.1.15,2013-04-02 08:23:00,
2013-04-02 04:26:00,25.5,19.6,30.23,NW,311,0.0,0.0,78,0.00,,,0.00,Wunderground v.1.15,2013-04-02 08:26:00,
2013-04-02 04:27:00,25.5,19.6,30.23,NW,311,0.0,0.0,78,0.00,,,0.00,Wunderground v.1.15,2013-04-02 08:27:00,
2013-04-02 04:29:00,25.3,19.4,30.23,NW,311,0.0,0.0,78,0.00,,,0.00,Wunderground v.1.15,2013-04-02 08:29:00,
2013-04-02 04:31:00,25.3,19.4,30.23,NW,311,0.0,0.0,78,0.00,,,0.00,Wunderground v.1.15,2013-04-02 08:31:00,
2013-04-02 04:32:00,25.3,19.4,30.23,NW,311,0.0,0.0,78,0.00,,,0.00,Wunderground v.1.15,2013-04-02 08:32:00,
2013-04-02 04:35:00,25.2,19.6,30.23,NW,311,0.0,0.0,79,0.00,,,0.00,Wunderground v.1.15,2013-04-02 08:35:00,
2013-04-02 04:38:00,25.2,19.6,30.23,NW,311,0.0,0.0,79,0.00,,,0.00,Wunderground v.1.15,2013-04-02 08:38:00,
2013-04-02 04:41:00,25.2,19.6,30.23,NW,311,0.0,0.0,79,0.00,,,0.00,Wunderground v.1.15,2013-04-02 08:41:00,
2013-04-02 04:42:00,25.2,19.6,30.23,NW,311,0.0,0.0,79,0.00,,,0.00,Wunderground v.1.15,2013-04-02 08:42:00,
2013-04-02 04:45:00,25.3,19.7,30.24,NW,311,0.0,0.0,79,0.00,,,0.00,Wunderground v.1.15,2013-04-02 08:45:00,
2013-04-02 04:47:00,25.3,19.7,30.24,NW,311,0.0,0.0,79,0.00,,,0.00,Wunderground v.1.15,2013-04-02 08:47:00,
2013-04-02 04:48:00,25.3,19.7,30.24,NW,311,0.0,0.0,79,0.00,,,0.00,Wunderground v.1.15,2013-04-02 08:48:00,
2013-04-02 04:50:00,25.3,19.7,30.24,NW,311,0.0,0.0,79,0.00,,,0.00,Wunderground v.1.15,2013-04-02 08:50:00,
2013-04-02 04:54:00,25.3,19.4,30.24,NW,311,0.0,0.0,78,0.00,,,0.00,Wunderground v.1.15,2013-04-02 08:54:00,
2013-04-02 04:56:00,25.2,19.3,30.24,NW,311,0.0,0.0,78,0.00,,,0.00,Wunderground v.1.15,2013-04-02 08:56:00,
2013-04-02 04:57:00,25.2,19.3,30.24,NW,311,0.0,0.0,78,0.00,,,0.00,Wunderground v.1.15,2013-04-02 08:57:00,
2013-04-02 04:59:00,25.2,19.3,30.24,NW,311,0.0,0.0,78,0.00,,,0.00,Wunderground v.1.15,2013-04-02 08:59:00,
2013-04-02 05:02:00,25.0,19.1,30.24,NW,311,0.0,0.0,78,0.00,,,0.00,Wunderground v.1.15,2013-04-02 09:02:00,
2013-04-02 05:05:00,25.0,19.1,30.24,NW,311,0.0,0.0,78,0.00,,,0.00,Wunderground v.1.15,2013-04-02 09:05:00,
2013-04-02 05:07:00,25.0,19.1,30.24,NW,311,0.0,0.0,78,0.00,,,0.00,Wunderground v.1.15,2013-04-02 09:07:00,
2013-04-02 05:08:00,25.0,18.8,30.24,NW,311,0.0,0.0,77,0.00,,,0.00,Wunderground v.1.15,2013-04-02 09:08:00,
2013-04-02 05:12:00,25.2,19.0,30.24,NW,311,0.0,0.0,77,0.00,,,0.00,Wunderground v.1.15,2013-04-02 09:12:00,
2013-04-02 05:13:00,25.2,19.0,30.24,NW,311,0.0,0.0,77,0.00,,,0.00,Wunderground v.1.15,2013-04-02 09:13:00,
2013-04-02 05:15:00,25.2,19.0,30.24,NW,311,0.0,0.0,77,0.00,,,0.00,Wunderground v.1.15,2013-04-02 09:15:00,
2013-04-02 05:18:00,25.2,19.0,30.24,NW,311,0.0,0.0,77,0.00,,,0.00,Wunderground v.1.15,2013-04-02 09:18:00,
2013-04-02 05:19:00,25.2,19.0,30.24,NW,311,0.0,0.0,77,0.00,,,0.00,Wunderground v.1.15,2013-04-02 09:19:00,
2013-04-02 05:20:00,25.2,19.0,30.24,NW,311,0.0,0.0,77,0.00,,,0.00,Wunderground v.1.15,2013-04-02 09:20:00,
2013-04-02 05:22:00,25.2,19.0,30.24,NW,311,0.0,0.0,77,0.00,,,0.00,Wunderground v.1.15,2013-04-02 09:22:00,
2013-04-02 05:24:00,25.2,19.0,30.24,NW,311,0.0,0.0,77,0.00,,,0.00,Wunderground v.1.15,2013-04-02 09:24:00,
2013-04-02 05:25:00,25.2,19.0,30.24,NW,311,0.0,0.0,77,0.00,,,0.00,Wunderground v.1.15,2013-04-02 09:25:00,
2013-04-02 05:27:00,25.2,19.0,30.24,NW,311,0.0,0.0,77,0.00,,,0.00,Wunderground v.1.15,2013-04-02 09:27:00,
2013-04-02 05:28:00,25.2,19.0,30.24,NW,311,0.0,0.0,77,0.00,,,0.00,Wunderground v.1.15,2013-04-02 09:28:00,
2013-04-02 05:32:00,25.2,19.0,30.25,NW,311,0.0,0.0,77,0.00,,,0.00,Wunderground v.1.15,2013-04-02 09:32:00,
2013-04-02 05:36:00,25.0,19.1,30.25,NW,311,0.0,0.0,78,0.00,,,0.00,Wunderground v.1.15,2013-04-02 09:36:00,
2013-04-02 05:37:00,25.0,19.1,30.25,NW,311,0.0,0.0,78,0.00,,,0.00,Wunderground v.1.15,2013-04-02 09:37:00,
2013-04-02 05:39:00,25.0,19.1,30.25,NW,311,0.0,0.0,78,0.00,,,0.00,Wunderground v.1.15,2013-04-02 09:39:00,
2013-04-02 05:43:00,24.9,19.0,30.25,NW,311,0.0,0.0,78,0.00,,,0.00,Wunderground v.1.15,2013-04-02 09:43:00,
2013-04-02 05:44:00,24.9,19.0,30.25,NW,311,0.0,0.0,78,0.00,,,0.00,Wunderground v.1.15,2013-04-02 09:44:00,
2013-04-02 05:46:00,24.9,19.0,30.25,NW,311,0.0,0.0,78,0.00,,,0.00,Wunderground v.1.15,2013-04-02 09:46:00,
2013-04-02 05:47:00,24.9,19.0,30.25,NW,311,0.0,0.0,78,0.00,,,0.00,Wunderground v.1.15,2013-04-02 09:47:00,
2013-04-02 05:49:00,24.9,19.0,30.25,NW,311,0.0,0.0,78,0.00,,,0.00,Wunderground v.1.15,2013-04-02 09:49:00,
2013-04-02 05:50:00,24.9,19.0,30.25,NW,311,0.0,0.0,78,0.00,,,0.00,Wunderground v.1.15,2013-04-02 09:50:00,
2013-04-02 05:51:00,24.9,19.0,30.25,NW,311,0.0,0.0,78,0.00,,,0.00,Wunderground v.1.15,2013-04-02 09:51:00,
2013-04-02 05:55:00,24.7,18.8,30.25,NW,311,0.0,0.0,78,0.00,,,0.00,Wunderground v.1.15,2013-04-02 09:55:00,
2013-04-02 05:56:00,24.7,18.8,30.25,NW,311,0.0,0.0,78,0.00,,,0.00,Wunderground v.1.15,2013-04-02 09:56:00,
2013-04-02 05:57:00,24.7,18.8,30.25,NW,311,0.0,0.0,78,0.00,,,0.00,Wunderground v.1.15,2013-04-02 09:57:00,
2013-04-02 05:59:00,24.7,18.8,30.25,NW,311,0.0,0.0,78,0.00,,,0.00,Wunderground v.1.15,2013-04-02 09:59:00,
2013-04-02 06:01:00,24.7,18.8,30.26,NW,311,0.0,0.0,78,0.00,,,0.00,Wunderground v.1.15,2013-04-02 10:01:00,
2013-04-02 06:03:00,24.7,18.5,30.26,NW,311,0.0,0.0,77,0.00,,,0.00,Wunderground v.1.15,2013-04-02 10:03:00,
2013-04-02 06:05:00,24.7,18.5,30.26,NW,311,0.0,0.0,77,0.00,,,0.00,Wunderground v.1.15,2013-04-02 10:05:00,
2013-04-02 06:06:00,24.7,18.5,30.26,NW,311,0.0,0.0,77,0.00,,,0.00,Wunderground v.1.15,2013-04-02 10:06:00,
2013-04-02 06:11:00,24.6,18.4,30.26,NW,311,0.0,0.0,77,0.00,,,0.00,Wunderground v.1.15,2013-04-02 10:11:00,
2013-04-02 06:12:00,24.6,18.4,30.26,NW,311,0.0,0.0,77,0.00,,,0.00,Wunderground v.1.15,2013-04-02 10:12:00,
2013-04-02 06:13:00,24.6,18.4,30.26,NW,311,0.0,0.0,77,0.00,,,0.00,Wunderground v.1.15,2013-04-02 10:13:00,
2013-04-02 06:17:00,24.4,18.2,30.26,NW,311,0.0,0.0,77,0.00,,,0.00,Wunderground v.1.15,2013-04-02 10:17:00,
2013-04-02 06:18:00,24.4,18.2,30.26,NW,311,0.0,0.0,77,0.00,,,0.00,Wunderground v.1.15,2013-04-02 10:18:00,
2013-04-02 06:19:00,24.4,18.2,30.26,NW,311,0.0,0.0,77,0.00,,,0.00,Wunderground v.1.15,2013-04-02 10:19:00,
2013-04-02 06:24:00,24.3,18.4,30.26,NW,311,0.0,0.0,78,0.00,,,0.00,Wunderground v.1.15,2013-04-02 10:24:00,
2013-04-02 06:25:00,24.3,18.4,30.26,NW,311,0.0,0.0,78,0.00,,,0.00,Wunderground v.1.15,2013-04-02 10:25:00,
2013-04-02 06:26:00,24.3,18.4,30.26,NW,311,0.0,0.0,78,0.00,,,0.00,Wunderground v.1.15,2013-04-02 10:26:00,
2013-04-02 06:30:00,24.3,18.4,30.26,NW,311,0.0,0.0,78,0.00,,,0.00,Wunderground v.1.15,2013-04-02 10:30:00,
2013-04-02 06:32:00,24.4,18.5,30.26,NW,311,0.0,0.0,78,0.00,,,0.00,Wunderground v.1.15,2013-04-02 10:32:00,
2013-04-02 06:33:00,24.4,18.5,30.26,NW,311,0.0,0.0,78,0.00,,,0.00,Wunderground v.1.15,2013-04-02 10:33:00,
2013-04-02 06:34:00,24.4,18.5,30.26,NW,311,0.0,0.0,78,0.00,,,0.00,Wunderground v.1.15,2013-04-02 10:34:00,
2013-04-02 06:36:00,24.4,18.5,30.26,NW,311,0.0,0.0,78,0.00,,,0.00,Wunderground v.1.15,2013-04-02 10:36:00,
2013-04-02 06:39:00,24.4,18.2,30.26,NW,311,0.0,0.0,77,0.00,,,0.00,Wunderground v.1.15,2013-04-02 10:39:00,
2013-04-02 06:40:00,24.4,18.2,30.26,NW,311,0.0,0.0,77,0.00,,,0.00,Wunderground v.1.15,2013-04-02 10:40:00,
2013-04-02 06:42:00,24.4,18.2,30.26,NW,311,0.0,0.0,77,0.00,,,0.00,Wunderground v.1.15,2013-04-02 10:42:00,
2013-04-02 06:44:00,24.4,18.2,30.26,NW,311,0.0,0.0,77,0.00,,,0.00,Wunderground v.1.15,2013-04-02 10:44:00,
2013-04-02 06:45:00,24.4,18.2,30.27,NW,311,0.0,0.0,77,0.00,,,0.00,Wunderground v.1.15,2013-04-02 10:45:00,
2013-04-02 06:48:00,24.3,18.1,30.27,NW,311,0.0,0.0,77,0.00,,,0.00,Wunderground v.1.15,2013-04-02 10:48:00,
2013-04-02 06:49:00,24.3,18.1,30.27,NW,311,0.0,0.0,77,0.00,,,0.00,Wunderground v.1.15,2013-04-02 10:49:00,
2013-04-02 06:50:00,24.3,18.1,30.27,NW,311,0.0,0.0,77,0.00,,,0.00,Wunderground v.1.15,2013-04-02 10:50:00,
2013-04-02 06:53:00,24.1,17.9,30.27,NW,311,0.0,0.0,77,0.00,,,0.00,Wunderground v.1.15,2013-04-02 10:53:00,
2013-04-02 06:54:00,24.1,17.9,30.27,NW,311,0.0,0.0,77,0.00,,,0.00,Wunderground v.1.15,2013-04-02 10:54:00,
2013-04-02 06:55:00,24.1,17.9,30.27,NW,311,0.0,0.0,77,0.00,,,0.00,Wunderground v.1.15,2013-04-02 10:55:00,
2013-04-02 06:56:00,24.1,18.2,30.27,NW,311,0.0,0.0,78,0.00,,,0.00,Wunderground v.1.15,2013-04-02 10:56:00,
2013-04-02 07:00:00,24.3,18.1,30.27,NW,311,0.0,0.0,77,0.00,,,0.00,Wunderground v.1.15,2013-04-02 11:00:00,
2013-04-02 07:01:00,24.3,18.1,30.27,NW,311,0.0,0.0,77,0.00,,,0.00,Wunderground v.1.15,2013-04-02 11:01:00,
2013-04-02 07:02:00,24.4,18.2,30.27,NW,311,0.0,0.0,77,0.00,,,0.00,Wunderground v.1.15,2013-04-02 11:02:00,
2013-04-02 07:07:00,24.4,17.9,30.27,NW,311,0.0,0.0,76,0.00,,,0.00,Wunderground v.1.15,2013-04-02 11:07:00,
2013-04-02 07:08:00,24.4,17.9,30.27,NW,311,0.0,0.0,76,0.00,,,0.00,Wunderground v.1.15,2013-04-02 11:08:00,
2013-04-02 07:12:00,24.3,17.8,30.27,NW,311,0.0,0.0,76,0.00,,,0.00,Wunderground v.1.15,2013-04-02 11:12:00,
2013-04-02 07:13:00,24.3,17.8,30.27,NW,311,0.0,0.0,76,0.00,,,0.00,Wunderground v.1.15,2013-04-02 11:13:00,
2013-04-02 07:14:00,24.3,17.8,30.27,NW,311,0.0,0.0,76,0.00,,,0.00,Wunderground v.1.15,2013-04-02 11:14:00,
2013-04-02 07:15:00,24.3,17.8,30.27,NW,311,0.0,0.0,76,0.00,,,0.00,Wunderground v.1.15,2013-04-02 11:15:00,
2013-04-02 07:18:00,24.1,17.6,30.27,NW,311,0.0,0.0,76,0.00,,,0.00,Wunderground v.1.15,2013-04-02 11:18:00,
2013-04-02 07:19:00,24.1,17.6,30.27,NW,311,0.0,0.0,76,0.00,,,0.00,Wunderground v.1.15,2013-04-02 11:19:00,
2013-04-02 07:23:00,24.1,17.9,30.27,NW,311,0.0,0.0,77,0.00,,,0.00,Wunderground v.1.15,2013-04-02 11:23:00,
2013-04-02 07:25:00,24.0,17.8,30.27,NW,311,0.0,0.0,77,0.00,,,0.00,Wunderground v.1.15,2013-04-02 11:25:00,
2013-04-02 07:27:00,24.0,17.8,30.27,NW,311,0.0,0.0,77,0.00,,,0.00,Wunderground v.1.15,2013-04-02 11:27:00,
2013-04-02 07:28:00,23.8,17.6,30.27,NW,311,0.0,0.0,77,0.00,,,0.00,Wunderground v.1.15,2013-04-02 11:28:00,
2013-04-02 07:30:00,23.8,17.6,30.28,NW,311,0.0,0.0,77,0.00,,,0.00,Wunderground v.1.15,2013-04-02 11:30:00,
2013-04-02 07:31:00,23.8,17.6,30.28,NW,311,0.0,0.0,77,0.00,,,0.00,Wunderground v.1.15,2013-04-02 11:31:00,
2013-04-02 07:34:00,23.8,17.6,30.28,NW,311,0.0,0.0,77,0.00,,,0.00,Wunderground v.1.15,2013-04-02 11:34:00,
2013-04-02 07:36:00,23.7,17.5,30.28,NW,311,0.0,0.0,77,0.00,,,0.00,Wunderground v.1.15,2013-04-02 11:36:00,
2013-04-02 07:38:00,23.7,17.5,30.28,NW,311,0.0,0.0,77,0.00,,,0.00,Wunderground v.1.15,2013-04-02 11:38:00,
2013-04-02 07:39:00,23.7,17.5,30.28,NW,311,0.0,0.0,77,0.00,,,0.00,Wunderground v.1.15,2013-04-02 11:39:00,
2013-04-02 07:40:00,23.7,17.5,30.28,NW,311,0.0,0.0,77,0.00,,,0.00,Wunderground v.1.15,2013-04-02 11:40:00,
2013-04-02 07:42:00,23.5,17.3,30.28,NW,311,0.0,0.0,77,0.00,,,0.00,Wunderground v.1.15,2013-04-02 11:42:00,
2013-04-02 07:43:00,23.5,17.3,30.28,NW,311,0.0,0.0,77,0.00,,,0.00,Wunderground v.1.15,2013-04-02 11:43:00,
2013-04-02 07:47:00,23.5,17.6,30.29,NW,311,0.0,0.0,78,0.00,,,0.00,Wunderground v.1.15,2013-04-02 11:47:00,
2013-04-02 07:50:00,23.7,18.1,30.29,NW,311,0.0,0.0,79,0.00,,,0.00,Wunderground v.1.15,2013-04-02 11:50:00,
2013-04-02 07:51:00,23.7,18.1,30.29,NW,311,0.0,0.0,79,0.00,,,0.00,Wunderground v.1.15,2013-04-02 11:51:00,
2013-04-02 07:53:00,23.8,18.2,30.29,NW,311,0.0,0.0,79,0.00,,,0.00,Wunderground v.1.15,2013-04-02 11:53:00,
2013-04-02 07:54:00,23.8,18.2,30.29,NW,311,0.0,0.0,79,0.00,,,0.00,Wunderground v.1.15,2013-04-02 11:54:00,
2013-04-02 07:56:00,24.0,18.4,30.29,NW,311,0.0,0.0,79,0.00,,,0.00,Wunderground v.1.15,2013-04-02 11:56:00,
2013-04-02 07:59:00,24.1,18.5,30.29,NW,311,0.0,0.0,79,0.00,,,0.00,Wunderground v.1.15,2013-04-02 11:59:00,
2013-04-02 08:00:00,24.1,18.5,30.30,NW,311,0.0,0.0,79,0.00,,,0.00,Wunderground v.1.15,2013-04-02 12:00:00,
2013-04-02 08:02:00,24.3,18.4,30.30,NW,311,0.0,0.0,78,0.00,,,0.00,Wunderground v.1.15,2013-04-02 12:02:00,
2013-04-02 08:04:00,24.4,18.5,30.30,NW,311,0.0,0.0,78,0.00,,,0.00,Wunderground v.1.15,2013-04-02 12:04:00,
2013-04-02 08:05:00,24.4,18.5,30.30,NW,311,0.0,0.0,78,0.00,,,0.00,Wunderground v.1.15,2013-04-02 12:05:00,
2013-04-02 08:06:00,24.4,18.5,30.30,NW,311,0.0,0.0,78,0.00,,,0.00,Wunderground v.1.15,2013-04-02 12:06:00,
2013-04-02 08:08:00,24.6,18.7,30.30,NW,311,0.0,0.0,78,0.00,,,0.00,Wunderground v.1.15,2013-04-02 12:08:00,
2013-04-02 08:11:00,25.0,19.1,30.30,NW,311,0.0,0.0,78,0.00,,,0.00,Wunderground v.1.15,2013-04-02 12:11:00,
2013-04-02 08:13:00,25.2,19.3,30.30,NW,311,0.0,0.0,78,0.00,,,0.00,Wunderground v.1.15,2013-04-02 12:13:00,
2013-04-02 08:14:00,25.3,19.4,30.30,NW,311,0.0,0.0,78,0.00,,,0.00,Wunderground v.1.15,2013-04-02 12:14:00,
2013-04-02 08:17:00,25.8,19.9,30.30,NW,311,0.0,0.0,78,0.00,,,0.00,Wunderground v.1.15,2013-04-02 12:17:00,
2013-04-02 08:20:00,26.1,20.2,30.30,NW,311,0.0,0.0,78,0.00,,,0.00,Wunderground v.1.15,2013-04-02 12:20:00,
2013-04-02 08:22:00,26.3,20.1,30.30,NW,311,0.0,0.0,77,0.00,,,0.00,Wunderground v.1.15,2013-04-02 12:22:00,
2013-04-02 08:23:00,26.5,20.3,30.30,NW,311,0.0,0.0,77,0.00,,,0.00,Wunderground v.1.15,2013-04-02 12:23:00,
2013-04-02 08:26:00,26.8,20.6,30.30,NW,311,0.0,0.0,77,0.00,,,0.00,Wunderground v.1.15,2013-04-02 12:26:00,
2013-04-02 08:28:00,27.1,20.8,30.30,NW,311,0.0,0.0,77,0.00,,,0.00,Wunderground v.1.15,2013-04-02 12:28:00,
2013-04-02 08:31:00,27.4,20.8,30.31,NW,311,0.0,0.0,76,0.00,,,0.00,Wunderground v.1.15,2013-04-02 12:31:00,
2013-04-02 08:32:00,27.5,20.9,30.31,NW,311,0.0,0.0,76,0.00,,,0.00,Wunderground v.1.15,2013-04-02 12:32:00,
2013-04-02 08:34:00,27.7,20.8,30.31,NW,311,0.0,0.0,75,0.00,,,0.00,Wunderground v.1.15,2013-04-02 12:34:00,
2013-04-02 08:35:00,27.8,20.9,30.31,NW,311,0.0,0.0,75,0.00,,,0.00,Wunderground v.1.15,2013-04-02 12:35:00,
2013-04-02 08:38:00,28.1,20.9,30.31,NW,311,0.0,0.0,74,0.00,,,0.00,Wunderground v.1.15,2013-04-02 12:38:00,
2013-04-02 08:40:00,28.3,20.7,30.31,NW,305,0.0,0.0,73,0.00,,,0.00,Wunderground v.1.15,2013-04-02 12:40:00,
2013-04-02 08:43:00,28.7,20.5,30.31,WNW,292,0.0,1.0,71,0.00,,,0.00,Wunderground v.1.15,2013-04-02 12:43:00,
2013-04-02 08:44:00,28.9,20.7,30.31,WNW,292,0.0,1.0,71,0.00,,,0.00,Wunderground v.1.15,2013-04-02 12:44:00,
2013-04-02 08:46:00,29.0,20.4,30.31,WNW,291,0.0,3.0,70,0.00,,,0.00,Wunderground v.1.15,2013-04-02 12:46:00,
2013-04-02 08:47:00,29.2,20.6,30.31,WNW,291,0.0,3.0,70,0.00,,,0.00,Wunderground v.1.15,2013-04-02 12:47:00,
2013-04-02 08:51:00,29.6,20.7,30.31,WNW,292,0.0,0.0,69,0.00,,,0.00,Wunderground v.1.15,2013-04-02 12:51:00,
2013-04-02 08:52:00,29.8,20.9,30.31,WNW,292,0.0,0.0,69,0.00,,,0.00,Wunderground v.1.15,2013-04-02 12:52:00,
2013-04-02 08:54:00,29.9,20.6,30.31,WNW,294,0.0,0.0,68,0.00,,,0.00,Wunderground v.1.15,2013-04-02 12:54:00,
2013-04-02 08:57:00,30.3,21.0,30.31,WNW,296,0.0,0.0,68,0.00,,,0.00,Wunderground v.1.15,2013-04-02 12:57:00,
2013-04-02 09:00:00,30.6,20.9,30.31,WNW,296,0.0,0.0,67,0.00,,,0.00,Wunderground v.1.15,2013-04-02 13:00:00,
2013-04-02 09:01:00,30.8,21.1,30.31,WNW,296,0.0,0.0,67,0.00,,,0.00,Wunderground v.1.15,2013-04-02 13:01:00,
2013-04-02 09:02:00,30.8,21.1,30.31,WNW,296,0.0,0.0,67,0.00,,,0.00,Wunderground v.1.15,2013-04-02 13:02:00,
2013-04-02 09:03:00,30.9,21.2,30.31,WNW,296,0.0,0.0,67,0.00,,,0.00,Wunderground v.1.15,2013-04-02 13:03:00,
2013-04-02 09:06:00,31.2,21.5,30.31,WNW,296,0.0,0.0,67,0.00,,,0.00,Wunderground v.1.15,2013-04-02 13:06:00,
2013-04-02 09:08:00,31.4,21.7,30.31,North,357,0.0,2.0,67,0.00,,,0.00,Wunderground v.1.15,2013-04-02 13:08:00,
2013-04-02 09:10:00,31.5,21.1,30.31,NNW,330,1.0,1.0,65,0.00,,,0.00,Wunderground v.1.15,2013-04-02 13:10:00,
2013-04-02 09:13:00,31.7,20.5,30.31,NW,318,1.0,4.0,63,0.00,,,0.00,Wunderground v.1.15,2013-04-02 13:13:00,
2013-04-02 09:16:00,31.8,20.3,30.32,NW,322,2.0,5.0,62,0.00,,,0.00,Wunderground v.1.15,2013-04-02 13:16:00,
2013-04-02 09:17:00,32.0,20.4,30.32,NW,322,3.0,5.0,62,0.00,,,0.00,Wunderground v.1.15,2013-04-02 13:17:00,
2013-04-02 09:19:00,32.1,20.2,30.32,NNW,335,3.0,6.0,61,0.00,,,0.00,Wunderground v.1.15,2013-04-02 13:19:00,
2013-04-02 09:22:00,32.3,20.0,30.32,NW,308,3.0,5.0,60,0.00,,,0.00,Wunderground v.1.15,2013-04-02 13:22:00,
2013-04-02 09:24:00,32.3,20.0,30.32,NNW,340,4.0,5.0,60,0.00,,,0.00,Wunderground v.1.15,2013-04-02 13:24:00,
2013-04-02 09:25:00,32.4,20.0,30.32,NNW,347,4.0,5.0,60,0.00,,,0.00,Wunderground v.1.15,2013-04-02 13:25:00,
2013-04-02 09:27:00,32.6,20.6,30.32,WNW,302,3.0,5.0,61,0.00,,,0.00,Wunderground v.1.15,2013-04-02 13:27:00,
2013-04-02 09:28:00,32.6,20.6,30.32,NNW,335,3.0,5.0,61,0.00,,,0.00,Wunderground v.1.15,2013-04-02 13:28:00,
2013-04-02 09:30:00,32.9,20.9,30.32,NW,323,2.0,2.0,61,0.00,,,0.00,Wunderground v.1.15,2013-04-02 13:30:00,
2013-04-02 09:33:00,33.0,20.6,30.32,WNW,302,2.0,7.0,60,0.00,,,0.00,Wunderground v.1.15,2013-04-02 13:33:00,
2013-04-02 09:36:00,33.3,20.9,30.32,NNW,333,2.0,7.0,60,0.00,,,0.00,Wunderground v.1.15,2013-04-02 13:36:00,
2013-04-02 09:37:00,33.3,20.5,30.32,NNW,339,2.0,7.0,59,0.00,,,0.00,Wunderground v.1.15,2013-04-02 13:37:00,
2013-04-02 09:42:00,33.6,20.8,30.32,NW,313,2.0,6.0,59,0.00,,,0.00,Wunderground v.1.15,2013-04-02 13:42:00,
2013-04-02 09:44:00,33.7,20.1,30.32,NW,325,2.0,6.0,57,0.00,,,0.00,Wunderground v.1.15,2013-04-02 13:44:00,
2013-04-02 09:45:00,33.7,20.1,30.32,NW,322,2.0,6.0,57,0.00,,,0.00,Wunderground v.1.15,2013-04-02 13:45:00,
2013-04-02 09:50:00,33.7,20.5,30.32,NW,305,3.0,3.0,58,0.00,,,0.00,Wunderground v.1.15,2013-04-02 13:50:00,
2013-04-02 09:51:00,33.7,20.9,30.32,NW,305,3.0,3.0,59,0.00,,,0.00,Wunderground v.1.15,2013-04-02 13:51:00,
2013-04-02 09:54:00,34.0,21.2,30.32,NNW,342,3.0,3.0,59,0.00,,,0.00,Wunderground v.1.15,2013-04-02 13:54:00,
2013-04-02 09:55:00,34.0,20.8,30.32,NW,323,2.0,3.0,58,0.00,,,0.00,Wunderground v.1.15,2013-04-02 13:55:00,
2013-04-02 09:58:00,34.2,21.4,30.32,NNW,336,2.0,4.0,59,0.00,,,0.00,Wunderground v.1.15,2013-04-02 13:58:00,
2013-04-02 10:01:00,34.3,20.6,30.33,NW,322,2.0,5.0,57,0.00,,,0.00,Wunderground v.1.15,2013-04-02 14:01:00,
2013-04-02 10:02:00,34.3,20.6,30.33,NW,322,3.0,5.0,57,0.00,,,0.00,Wunderground v.1.15,2013-04-02 14:02:00,
2013-04-02 10:05:00,34.5,20.8,30.33,NNW,328,3.0,5.0,57,0.00,,,0.00,Wunderground v.1.15,2013-04-02 14:05:00,
2013-04-02 10:06:00,34.5,20.4,30.33,NNW,328,3.0,5.0,56,0.00,,,0.00,Wunderground v.1.15,2013-04-02 14:06:00,
2013-04-02 10:10:00,34.8,20.7,30.33,NNW,328,1.0,1.0,56,0.00,,,0.00,Wunderground v.1.15,2013-04-02 14:10:00,
2013-04-02 10:11:00,34.8,21.1,30.33,NNW,328,1.0,1.0,57,0.00,,,0.00,Wunderground v.1.15,2013-04-02 14:11:00,
2013-04-02 10:16:00,34.9,19.9,30.33,North,0,1.0,5.0,54,0.00,,,0.00,Wunderground v.1.15,2013-04-02 14:16:00,
2013-04-02 10:17:00,34.9,19.9,30.33,North,0,1.0,5.0,54,0.00,,,0.00,Wunderground v.1.15,2013-04-02 14:17:00,
2013-04-02 10:18:00,34.9,19.9,30.33,North,0,1.0,5.0,54,0.00,,,0.00,Wunderground v.1.15,2013-04-02 14:18:00,
2013-04-02 10:23:00,35.5,19.6,30.33,North,350,1.0,2.0,52,0.00,,,0.00,Wunderground v.1.15,2013-04-02 14:23:00,
2013-04-02 10:24:00,35.5,19.1,30.33,North,350,1.0,2.0,51,0.00,,,0.00,Wunderground v.1.15,2013-04-02 14:24:00,
2013-04-02 10:25:00,35.5,19.1,30.33,North,350,1.0,2.0,51,0.00,,,0.00,Wunderground v.1.15,2013-04-02 14:25:00,
2013-04-02 10:26:00,35.7,18.9,30.33,West,275,0.0,2.0,50,0.00,,,0.00,Wunderground v.1.15,2013-04-02 14:26:00,
2013-04-02 10:32:00,35.8,19.0,30.33,NNW,330,2.0,4.0,50,0.00,,,0.00,Wunderground v.1.15,2013-04-02 14:32:00,
2013-04-02 10:33:00,36.0,19.1,30.33,NNW,330,2.0,4.0,50,0.00,,,0.00,Wunderground v.1.15,2013-04-02 14:33:00,
2013-04-02 10:35:00,36.1,19.7,30.33,NW,320,2.0,4.0,51,0.00,,,0.00,Wunderground v.1.15,2013-04-02 14:35:00,
2013-04-02 10:36:00,36.1,18.8,30.33,NW,316,2.0,4.0,49,0.00,,,0.00,Wunderground v.1.15,2013-04-02 14:36:00,
2013-04-02 10:37:00,36.3,18.5,30.33,NW,316,2.0,4.0,48,0.00,,,0.00,Wunderground v.1.15,2013-04-02 14:37:00,
2013-04-02 10:38:00,36.3,18.5,30.33,NW,316,2.0,4.0,48,0.00,,,0.00,Wunderground v.1.15,2013-04-02 14:38:00,
2013-04-02 10:41:00,36.4,18.6,30.33,North,353,1.0,2.0,48,0.00,,,0.00,Wunderground v.1.15,2013-04-02 14:41:00,
2013-04-02 10:43:00,36.5,18.2,30.33,NE,35,1.0,2.0,47,0.00,,,0.00,Wunderground v.1.15,2013-04-02 14:43:00,
2013-04-02 10:46:00,36.5,18.2,30.33,North,359,1.0,5.0,47,0.00,,,0.00,Wunderground v.1.15,2013-04-02 14:46:00,
2013-04-02 10:48:00,36.7,18.3,30.33,North,357,2.0,5.0,47,0.00,,,0.00,Wunderground v.1.15,2013-04-02 14:48:00,
2013-04-02 10:50:00,36.7,18.3,30.33,WSW,237,2.0,6.0,47,0.00,,,0.00,Wunderground v.1.15,2013-04-02 14:50:00,
2013-04-02 10:53:00,37.0,18.6,30.33,WNW,296,2.0,6.0,47,0.00,,,0.00,Wunderground v.1.15,2013-04-02 14:53:00,
2013-04-02 10:54:00,37.0,19.6,30.33,West,280,2.0,6.0,49,0.00,,,0.00,Wunderground v.1.15,2013-04-02 14:54:00,
2013-04-02 10:55:00,37.1,19.7,30.33,West,274,2.0,6.0,49,0.00,,,0.00,Wunderground v.1.15,2013-04-02 14:55:00,
2013-04-02 10:58:00,37.3,18.9,30.33,WNW,301,3.0,6.0,47,0.00,,,0.00,Wunderground v.1.15,2013-04-02 14:58:00,
2013-04-02 11:00:00,37.4,19.5,30.33,NW,306,3.0,5.0,48,0.00,,,0.00,Wunderground v.1.15,2013-04-02 15:00:00,
2013-04-02 11:01:00,37.4,19.5,30.33,NW,322,3.0,5.0,48,0.00,,,0.00,Wunderground v.1.15,2013-04-02 15:01:00,
2013-04-02 11:02:00,37.5,19.1,30.33,WSW,256,3.0,5.0,47,0.00,,,0.00,Wunderground v.1.15,2013-04-02 15:02:00,
2013-04-02 11:04:00,37.5,18.6,30.33,WNW,295,4.0,7.0,46,0.00,,,0.00,Wunderground v.1.15,2013-04-02 15:04:00,
2013-04-02 11:06:00,37.5,17.0,30.33,WSW,247,4.0,7.0,43,0.00,,,0.00,Wunderground v.1.15,2013-04-02 15:06:00,
2013-04-02 11:07:00,37.5,17.0,30.33,WSW,257,4.0,7.0,43,0.00,,,0.00,Wunderground v.1.15,2013-04-02 15:07:00,
2013-04-02 11:13:00,37.7,17.2,30.33,NNW,347,5.0,7.0,43,0.00,,,0.00,Wunderground v.1.15,2013-04-02 15:13:00,
2013-04-02 11:14:00,37.7,16.6,30.33,North,354,4.0,7.0,42,0.00,,,0.00,Wunderground v.1.15,2013-04-02 15:14:00,
2013-04-02 11:18:00,37.8,16.7,30.33,WNW,282,3.0,7.0,42,0.00,,,0.00,Wunderground v.1.15,2013-04-02 15:18:00,
2013-04-02 11:20:00,38.1,18.1,30.33,NW,326,3.0,6.0,44,0.00,,,0.00,Wunderground v.1.15,2013-04-02 15:20:00,
2013-04-02 11:23:00,38.3,18.8,30.33,NW,304,2.0,6.0,45,0.00,,,0.00,Wunderground v.1.15,2013-04-02 15:23:00,
2013-04-02 11:24:00,38.3,17.7,30.33,NW,309,2.0,6.0,43,0.00,,,0.00,Wunderground v.1.15,2013-04-02 15:24:00,
2013-04-02 11:25:00,38.3,17.7,30.33,NW,309,2.0,6.0,43,0.00,,,0.00,Wunderground v.1.15,2013-04-02 15:25:00,
2013-04-02 11:29:00,38.8,17.6,30.33,WNW,288,2.0,6.0,42,0.00,,,0.00,Wunderground v.1.15,2013-04-02 15:29:00,
2013-04-02 11:30:00,38.8,17.1,30.33,NNW,343,2.0,4.0,41,0.00,,,0.00,Wunderground v.1.15,2013-04-02 15:30:00,
2013-04-02 11:32:00,39.0,16.7,30.33,NNW,330,2.0,4.0,40,0.00,,,0.00,Wunderground v.1.15,2013-04-02 15:32:00,
2013-04-02 11:33:00,39.0,16.7,30.33,NNW,343,2.0,8.0,40,0.00,,,0.00,Wunderground v.1.15,2013-04-02 15:33:00,
2013-04-02 11:35:00,38.8,16.5,30.33,NNW,337,3.0,8.0,40,0.00,,,0.00,Wunderground v.1.15,2013-04-02 15:35:00,
2013-04-02 11:40:00,38.7,16.4,30.33,NW,305,3.0,3.0,40,0.00,,,0.00,Wunderground v.1.15,2013-04-02 15:40:00,
2013-04-02 11:41:00,38.8,17.6,30.33,WNW,284,3.0,3.0,42,0.00,,,0.00,Wunderground v.1.15,2013-04-02 15:41:00,
2013-04-02 11:42:00,39.0,17.8,30.33,NW,320,3.0,3.0,42,0.00,,,0.00,Wunderground v.1.15,2013-04-02 15:42:00,
2013-04-02 11:46:00,39.3,12.6,30.33,NW,323,3.0,12.0,33,0.00,,,0.00,Wunderground v.1.15,2013-04-02 15:46:00,
2013-04-02 11:49:00,39.1,12.4,30.33,NNW,339,4.0,12.0,33,0.00,,,0.00,Wunderground v.1.15,2013-04-02 15:49:00,
2013-04-02 11:50:00,39.1,12.4,30.33,NNE,20,4.0,4.0,33,0.00,,,0.00,Wunderground v.1.15,2013-04-02 15:50:00,
2013-04-02 11:54:00,39.3,12.6,30.33,NW,315,5.0,6.0,33,0.00,,,0.00,Wunderground v.1.15,2013-04-02 15:54:00,
2013-04-02 11:55:00,39.4,13.3,30.33,NNW,339,4.0,6.0,34,0.00,,,0.00,Wunderground v.1.15,2013-04-02 15:55:00,
2013-04-02 11:58:00,39.6,13.5,30.33,NW,319,4.0,11.0,34,0.00,,,0.00,Wunderground v.1.15,2013-04-02 15:58:00,
2013-04-02 12:00:00,39.7,15.5,30.32,WNW,299,4.0,4.0,37,0.00,,,0.00,Wunderground v.1.15,2013-04-02 16:00:00,
2013-04-02 12:03:00,39.8,13.0,30.32,NNE,16,5.0,5.0,33,0.00,,,0.00,Wunderground v.1.15,2013-04-02 16:03:00,
2013-04-02 12:05:00,40.0,13.8,30.32,North,3,4.0,7.0,34,0.00,,,0.00,Wunderground v.1.15,2013-04-02 16:05:00,
2013-04-02 12:07:00,40.0,14.5,30.32,NE,52,4.0,7.0,35,0.00,,,0.00,Wunderground v.1.15,2013-04-02 16:07:00,
2013-04-02 12:10:00,40.3,15.4,30.32,NNW,328,3.0,7.0,36,0.00,,,0.00,Wunderground v.1.15,2013-04-02 16:10:00,
2013-04-02 12:11:00,40.3,17.3,30.32,NW,315,3.0,7.0,39,0.00,,,0.00,Wunderground v.1.15,2013-04-02 16:11:00,
2013-04-02 12:13:00,40.3,15.4,30.32,WNW,298,4.0,7.0,36,0.00,,,0.00,Wunderground v.1.15,2013-04-02 16:13:00,
2013-04-02 12:16:00,40.3,14.1,30.32,North,353,4.0,7.0,34,0.00,,,0.00,Wunderground v.1.15,2013-04-02 16:16:00,
2013-04-02 12:18:00,40.3,13.4,30.32,NNW,346,4.0,7.0,33,0.00,,,0.00,Wunderground v.1.15,2013-04-02 16:18:00,
2013-04-02 12:22:00,40.4,13.5,30.32,NW,315,3.0,4.0,33,0.00,,,0.00,Wunderground v.1.15,2013-04-02 16:22:00,
2013-04-02 12:23:00,40.6,14.4,30.32,NW,315,3.0,4.0,34,0.00,,,0.00,Wunderground v.1.15,2013-04-02 16:23:00,
2013-04-02 12:24:00,40.7,15.1,30.32,NW,313,2.0,4.0,35,0.00,,,0.00,Wunderground v.1.15,2013-04-02 16:24:00,
2013-04-02 12:28:00,41.0,12.6,30.32,NNW,329,2.0,8.0,31,0.00,,,0.00,Wunderground v.1.15,2013-04-02 16:28:00,
2013-04-02 12:29:00,41.0,13.4,30.32,North,359,2.0,8.0,32,0.00,,,0.00,Wunderground v.1.15,2013-04-02 16:29:00,
2013-04-02 12:31:00,41.0,13.4,30.32,North,359,3.0,7.0,32,0.00,,,0.00,Wunderground v.1.15,2013-04-02 16:31:00,
2013-04-02 12:34:00,40.7,12.4,30.32,NNW,346,5.0,7.0,31,0.00,,,0.00,Wunderground v.1.15,2013-04-02 16:34:00,
2013-04-02 12:37:00,40.7,13.1,30.32,NW,311,5.0,7.0,32,0.00,,,0.00,Wunderground v.1.15,2013-04-02 16:37:00,
2013-04-02 12:41:00,40.8,12.5,30.32,North,349,5.0,5.0,31,0.00,,,0.00,Wunderground v.1.15,2013-04-02 16:41:00,
2013-04-02 12:47:00,41.0,14.1,30.31,North,0,4.0,9.0,33,0.00,,,0.00,Wunderground v.1.15,2013-04-02 16:47:00,
2013-04-02 12:48:00,41.0,12.6,30.31,North,10,4.0,9.0,31,0.00,,,0.00,Wunderground v.1.15,2013-04-02 16:48:00,
2013-04-02 12:52:00,40.8,11.7,30.31,East,95,4.0,7.0,30,0.00,,,0.00,Wunderground v.1.15,2013-04-02 16:52:00,
2013-04-02 12:54:00,41.1,14.1,30.31,East,95,4.0,7.0,33,0.00,,,0.00,Wunderground v.1.15,2013-04-02 16:54:00,
2013-04-02 12:56:00,41.3,12.9,30.31,North,0,3.0,8.0,31,0.00,,,0.00,Wunderground v.1.15,2013-04-02 16:56:00,
2013-04-02 12:59:00,41.7,12.5,30.31,NNW,328,3.0,8.0,30,0.00,,,0.00,Wunderground v.1.15,2013-04-02 16:59:00,
2013-04-02 13:04:00,42.1,12.1,30.31,NW,311,5.0,8.0,29,0.00,,,0.00,Wunderground v.1.15,2013-04-02 17:04:00,
2013-04-02 13:05:00,42.1,12.1,30.31,NNW,330,6.0,8.0,29,0.00,,,0.00,Wunderground v.1.15,2013-04-02 17:05:00,
2013-04-02 13:07:00,42.0,12.0,30.31,North,359,6.0,8.0,29,0.00,,,0.00,Wunderground v.1.15,2013-04-02 17:07:00,
2013-04-02 13:10:00,41.8,12.6,30.31,ENE,59,5.0,5.0,30,0.00,,,0.00,Wunderground v.1.15,2013-04-02 17:10:00,
2013-04-02 13:12:00,42.0,12.8,30.31,NNW,340,5.0,7.0,30,0.00,,,0.00,Wunderground v.1.15,2013-04-02 17:12:00,
2013-04-02 13:13:00,42.0,13.5,30.31,NNW,346,4.0,7.0,31,0.00,,,0.00,Wunderground v.1.15,2013-04-02 17:13:00,
2013-04-02 13:18:00,42.3,13.0,30.30,NNW,347,4.0,7.0,30,0.00,,,0.00,Wunderground v.1.15,2013-04-02 17:18:00,
2013-04-02 13:19:00,42.1,12.1,30.30,NW,323,4.0,7.0,29,0.00,,,0.00,Wunderground v.1.15,2013-04-02 17:19:00,
2013-04-02 13:20:00,42.1,12.8,30.30,North,350,5.0,6.0,30,0.00,,,0.00,Wunderground v.1.15,2013-04-02 17:20:00,
2013-04-02 13:24:00,42.1,12.8,30.30,West,281,5.0,10.0,30,0.00,,,0.00,Wunderground v.1.15,2013-04-02 17:24:00,
2013-04-02 13:25:00,42.1,12.8,30.30,NNW,329,5.0,10.0,30,0.00,,,0.00,Wunderground v.1.15,2013-04-02 17:25:00,
2013-04-02 13:32:00,42.4,13.1,30.30,NNW,347,4.0,6.0,30,0.00,,,0.00,Wunderground v.1.15,2013-04-02 17:32:00,
2013-04-02 13:33:00,42.4,13.1,30.30,NNW,336,4.0,6.0,30,0.00,,,0.00,Wunderground v.1.15,2013-04-02 17:33:00,
2013-04-02 13:37:00,42.3,12.3,30.30,NNW,335,4.0,6.0,29,0.00,,,0.00,Wunderground v.1.15,2013-04-02 17:37:00,
2013-04-02 13:40:00,42.4,12.3,30.30,NW,323,3.0,3.0,29,0.00,,,0.00,Wunderground v.1.15,2013-04-02 17:40:00,
2013-04-02 13:44:00,42.7,13.4,30.30,NNW,328,3.0,7.0,30,0.00,,,0.00,Wunderground v.1.15,2013-04-02 17:44:00,
2013-04-02 13:45:00,42.8,14.9,30.29,NW,308,4.0,7.0,32,0.00,,,0.00,Wunderground v.1.15,2013-04-02 17:45:00,
2013-04-02 13:50:00,43.3,13.9,30.29,NW,323,5.0,6.0,30,0.00,,,0.00,Wunderground v.1.15,2013-04-02 17:50:00,
2013-04-02 13:52:00,43.3,13.1,30.29,NNW,339,6.0,7.0,29,0.00,,,0.00,Wunderground v.1.15,2013-04-02 17:52:00,
2013-04-02 13:55:00,43.3,13.9,30.29,ENE,59,5.0,7.0,30,0.00,,,0.00,Wunderground v.1.15,2013-04-02 17:55:00,
2013-04-02 13:56:00,43.4,13.2,30.29,ENE,58,5.0,7.0,29,0.00,,,0.00,Wunderground v.1.15,2013-04-02 17:56:00,
2013-04-02 13:58:00,43.7,13.5,30.29,ENE,76,4.0,7.0,29,0.00,,,0.00,Wunderground v.1.15,2013-04-02 17:58:00,
2013-04-02 14:00:00,43.8,14.3,30.28,NW,312,3.0,5.0,30,0.00,,,0.00,Wunderground v.1.15,2013-04-02 18:00:00,
2013-04-02 14:01:00,43.8,14.3,30.28,NNW,336,3.0,7.0,30,0.00,,,0.00,Wunderground v.1.15,2013-04-02 18:01:00,
2013-04-02 14:06:00,44.8,14.4,30.28,NW,312,3.0,12.0,29,0.00,,,0.00,Wunderground v.1.15,2013-04-02 18:06:00,
2013-04-02 14:07:00,44.8,12.8,30.28,NNW,336,4.0,12.0,27,0.00,,,0.00,Wunderground v.1.15,2013-04-02 18:07:00,
2013-04-02 14:08:00,44.8,13.6,30.28,NW,319,4.0,12.0,28,0.00,,,0.00,Wunderground v.1.15,2013-04-02 18:08:00,
2013-04-02 14:12:00,44.7,13.5,30.28,NW,308,6.0,9.0,28,0.00,,,0.00,Wunderground v.1.15,2013-04-02 18:12:00,
2013-04-02 14:13:00,44.6,11.8,30.28,NW,325,6.0,9.0,26,0.00,,,0.00,Wunderground v.1.15,2013-04-02 18:13:00,
2013-04-02 14:17:00,44.1,13.0,30.28,WNW,302,6.0,9.0,28,0.00,,,0.00,Wunderground v.1.15,2013-04-02 18:17:00,
2013-04-02 14:19:00,44.3,13.2,30.28,SW,229,5.0,9.0,28,0.00,,,0.00,Wunderground v.1.15,2013-04-02 18:19:00,
2013-04-02 14:20:00,44.4,14.9,30.28,NNW,344,5.0,6.0,30,0.00,,,0.00,Wunderground v.1.15,2013-04-02 18:20:00,
2013-04-02 14:23:00,44.4,14.1,30.28,North,359,5.0,7.0,29,0.00,,,0.00,Wunderground v.1.15,2013-04-02 18:23:00,
2013-04-02 14:24:00,44.6,15.8,30.28,North,349,4.0,7.0,31,0.00,,,0.00,Wunderground v.1.15,2013-04-02 18:24:00,
2013-04-02 14:25:00,44.6,13.5,30.28,NNW,343,5.0,7.0,28,0.00,,,0.00,Wunderground v.1.15,2013-04-02 18:25:00,
2013-04-02 14:28:00,44.6,12.6,30.28,NNW,343,4.0,7.0,27,0.00,,,0.00,Wunderground v.1.15,2013-04-02 18:28:00,
2013-04-02 14:29:00,44.6,12.6,30.28,NNW,343,4.0,7.0,27,0.00,,,0.00,Wunderground v.1.15,2013-04-02 18:29:00,
2013-04-02 14:31:00,44.7,14.3,30.27,NNW,344,3.0,4.0,29,0.00,,,0.00,Wunderground v.1.15,2013-04-02 18:31:00,
2013-04-02 14:33:00,45.0,14.6,30.27,NW,323,2.0,6.0,29,0.00,,,0.00,Wunderground v.1.15,2013-04-02 18:33:00,
2013-04-02 14:37:00,45.0,13.0,30.27,North,352,3.0,10.0,27,0.00,,,0.00,Wunderground v.1.15,2013-04-02 18:37:00,
2013-04-02 14:39:00,44.8,13.6,30.27,North,354,4.0,10.0,28,0.00,,,0.00,Wunderground v.1.15,2013-04-02 18:39:00,
2013-04-02 14:42:00,45.0,16.1,30.27,North,10,5.0,6.0,31,0.00,,,0.00,Wunderground v.1.15,2013-04-02 18:42:00,
2013-04-02 14:44:00,45.3,15.6,30.27,North,356,5.0,10.0,30,0.00,,,0.00,Wunderground v.1.15,2013-04-02 18:44:00,
2013-04-02 14:48:00,45.4,14.1,30.27,North,359,5.0,10.0,28,0.00,,,0.00,Wunderground v.1.15,2013-04-02 18:48:00,
2013-04-02 14:52:00,45.6,15.9,30.27,NW,323,5.0,6.0,30,0.00,,,0.00,Wunderground v.1.15,2013-04-02 18:52:00,
2013-04-02 14:54:00,45.6,15.1,30.27,NNW,332,6.0,11.0,29,0.00,,,0.00,Wunderground v.1.15,2013-04-02 18:54:00,
2013-04-02 14:57:00,45.6,15.9,30.27,WNW,292,6.0,11.0,30,0.00,,,0.00,Wunderground v.1.15,2013-04-02 18:57:00,
2013-04-02 15:01:00,45.7,14.4,30.26,North,353,6.0,6.0,28,0.00,,,0.00,Wunderground v.1.15,2013-04-02 19:01:00,
2013-04-02 15:03:00,45.9,14.6,30.26,North,353,5.0,6.0,28,0.00,,,0.00,Wunderground v.1.15,2013-04-02 19:03:00,
2013-04-02 15:04:00,45.9,15.4,30.26,North,353,4.0,6.0,29,0.00,,,0.00,Wunderground v.1.15,2013-04-02 19:04:00,
2013-04-02 15:07:00,46.0,14.7,30.26,NNE,18,3.0,6.0,28,0.00,,,0.00,Wunderground v.1.15,2013-04-02 19:07:00,
2013-04-02 15:09:00,46.0,14.7,30.26,NNW,337,3.0,7.0,28,0.00,,,0.00,Wunderground v.1.15,2013-04-02 19:09:00,
2013-04-02 15:11:00,46.0,13.8,30.26,North,3,3.0,3.0,27,0.00,,,0.00,Wunderground v.1.15,2013-04-02 19:11:00,
2013-04-02 15:16:00,46.2,14.8,30.25,NNW,328,4.0,5.0,28,0.00,,,0.00,Wunderground v.1.15,2013-04-02 19:16:00,
2013-04-02 15:17:00,46.2,14.0,30.25,West,274,4.0,5.0,27,0.00,,,0.00,Wunderground v.1.15,2013-04-02 19:17:00,
2013-04-02 15:23:00,46.3,14.9,30.25,ENE,64,5.0,6.0,28,0.00,,,0.00,Wunderground v.1.15,2013-04-02 19:23:00,
2013-04-02 15:24:00,46.5,16.7,30.25,ENE,75,5.0,6.0,30,0.00,,,0.00,Wunderground v.1.15,2013-04-02 19:24:00,
2013-04-02 15:26:00,46.7,16.1,30.25,WSW,247,4.0,8.0,29,0.00,,,0.00,Wunderground v.1.15,2013-04-02 19:26:00,
2013-04-02 15:29:00,46.9,14.6,30.25,NW,313,5.0,8.0,27,0.00,,,0.00,Wunderground v.1.15,2013-04-02 19:29:00,
2013-04-02 15:30:00,46.9,14.6,30.25,NW,318,5.0,9.0,27,0.00,,,0.00,Wunderground v.1.15,2013-04-02 19:30:00,
2013-04-02 15:33:00,46.7,13.6,30.25,NNW,347,5.0,9.0,26,0.00,,,0.00,Wunderground v.1.15,2013-04-02 19:33:00,
2013-04-02 15:35:00,46.6,15.2,30.25,NW,326,5.0,9.0,28,0.00,,,0.00,Wunderground v.1.15,2013-04-02 19:35:00,
2013-04-02 15:36:00,46.7,16.1,30.25,NW,308,5.0,9.0,29,0.00,,,0.00,Wunderground v.1.15,2013-04-02 19:36:00,
2013-04-02 15:39:00,46.9,16.3,30.25,NNW,346,4.0,9.0,29,0.00,,,0.00,Wunderground v.1.15,2013-04-02 19:39:00,
2013-04-02 15:40:00,47.0,16.3,30.25,West,265,5.0,5.0,29,0.00,,,0.00,Wunderground v.1.15,2013-04-02 19:40:00,
2013-04-02 15:41:00,47.0,17.1,30.25,West,275,5.0,5.0,30,0.00,,,0.00,Wunderground v.1.15,2013-04-02 19:41:00,
2013-04-02 15:46:00,47.6,15.2,30.25,NE,40,4.0,6.0,27,0.00,,,0.00,Wunderground v.1.15,2013-04-02 19:46:00,
2013-04-02 15:49:00,47.2,14.9,30.25,NNW,336,4.0,6.0,27,0.00,,,0.00,Wunderground v.1.15,2013-04-02 19:49:00,
2013-04-02 15:54:00,47.0,15.5,30.25,West,274,4.0,7.0,28,0.00,,,0.00,Wunderground v.1.15,2013-04-02 19:54:00,
2013-04-02 15:55:00,47.0,14.7,30.25,West,270,4.0,7.0,27,0.00,,,0.00,Wunderground v.1.15,2013-04-02 19:55:00,
2013-04-02 15:57:00,47.5,15.1,30.25,West,278,4.0,7.0,27,0.00,,,0.00,Wunderground v.1.15,2013-04-02 19:57:00,
2013-04-02 16:00:00,47.5,14.3,30.24,NW,318,5.0,8.0,26,0.00,,,0.00,Wunderground v.1.15,2013-04-02 20:00:00,
2013-04-02 16:01:00,47.5,14.3,30.24,NNW,339,5.0,8.0,26,0.00,,,0.00,Wunderground v.1.15,2013-04-02 20:01:00,
2013-04-02 16:02:00,47.5,15.1,30.24,WSW,254,5.0,8.0,27,0.00,,,0.00,Wunderground v.1.15,2013-04-02 20:02:00,
2013-04-02 16:06:00,47.5,14.3,30.24,NNW,347,6.0,8.0,26,0.00,,,0.00,Wunderground v.1.15,2013-04-02 20:06:00,
2013-04-02 16:07:00,47.3,14.1,30.24,NW,313,6.0,8.0,26,0.00,,,0.00,Wunderground v.1.15,2013-04-02 20:07:00,
2013-04-02 16:12:00,47.3,16.6,30.24,North,354,5.0,7.0,29,0.00,,,0.00,Wunderground v.1.15,2013-04-02 20:12:00,
2013-04-02 16:13:00,47.3,15.8,30.24,NNW,347,5.0,7.0,28,0.00,,,0.00,Wunderground v.1.15,2013-04-02 20:13:00,
2013-04-02 16:14:00,47.3,15.0,30.24,NNW,339,5.0,7.0,27,0.00,,,0.00,Wunderground v.1.15,2013-04-02 20:14:00,
2013-04-02 16:18:00,47.3,14.1,30.25,NW,313,4.0,7.0,26,0.00,,,0.00,Wunderground v.1.15,2013-04-02 20:18:00,
2013-04-02 16:19:00,47.5,14.3,30.25,NW,313,4.0,7.0,26,0.00,,,0.00,Wunderground v.1.15,2013-04-02 20:19:00,
2013-04-02 16:24:00,47.5,14.3,30.25,NNW,339,3.0,11.0,26,0.00,,,0.00,Wunderground v.1.15,2013-04-02 20:24:00,
2013-04-02 16:25:00,47.5,15.1,30.25,NNW,343,3.0,11.0,27,0.00,,,0.00,Wunderground v.1.15,2013-04-02 20:25:00,
2013-04-02 16:27:00,47.5,17.6,30.25,WNW,296,5.0,11.0,30,0.00,,,0.00,Wunderground v.1.15,2013-04-02 20:27:00,
2013-04-02 16:29:00,47.5,16.0,30.25,NNW,340,5.0,11.0,28,0.00,,,0.00,Wunderground v.1.15,2013-04-02 20:29:00,
2013-04-02 16:30:00,47.5,15.1,30.24,North,0,5.0,6.0,27,0.00,,,0.00,Wunderground v.1.15,2013-04-02 20:30:00,
2013-04-02 16:34:00,47.5,15.1,30.24,NNW,346,6.0,7.0,27,0.00,,,0.00,Wunderground v.1.15,2013-04-02 20:34:00,
2013-04-02 16:35:00,47.5,15.1,30.24,North,0,6.0,7.0,27,0.00,,,0.00,Wunderground v.1.15,2013-04-02 20:35:00,
2013-04-02 16:39:00,47.5,14.3,30.24,North,352,6.0,12.0,26,0.00,,,0.00,Wunderground v.1.15,2013-04-02 20:39:00,
2013-04-02 16:41:00,47.5,15.1,30.24,NW,325,5.0,5.0,27,0.00,,,0.00,Wunderground v.1.15,2013-04-02 20:41:00,
2013-04-02 16:45:00,48.1,16.5,30.24,NW,322,5.0,7.0,28,0.00,,,0.00,Wunderground v.1.15,2013-04-02 20:45:00,
2013-04-02 16:47:00,48.2,14.0,30.24,NW,323,4.0,7.0,25,0.00,,,0.00,Wunderground v.1.15,2013-04-02 20:47:00,
2013-04-02 16:50:00,48.4,15.0,30.24,WSW,258,3.0,12.0,26,0.00,,,0.00,Wunderground v.1.15,2013-04-02 20:50:00,
2013-04-02 16:52:00,48.4,15.9,30.24,NW,305,4.0,12.0,27,0.00,,,0.00,Wunderground v.1.15,2013-04-02 20:52:00,
2013-04-02 16:54:00,48.2,13.0,30.24,WNW,287,4.0,12.0,24,0.00,,,0.00,Wunderground v.1.15,2013-04-02 20:54:00,
2013-04-02 16:56:00,48.1,13.9,30.24,WNW,294,4.0,12.0,25,0.00,,,0.00,Wunderground v.1.15,2013-04-02 20:56:00,
2013-04-02 16:59:00,47.9,13.7,30.24,North,354,6.0,12.0,25,0.00,,,0.00,Wunderground v.1.15,2013-04-02 20:59:00,
2013-04-02 17:01:00,47.8,13.6,30.24,North,356,7.0,11.0,25,0.00,,,0.00,Wunderground v.1.15,2013-04-02 21:01:00,
2013-04-02 17:02:00,47.8,13.6,30.24,NNW,346,7.0,11.0,25,0.00,,,0.00,Wunderground v.1.15,2013-04-02 21:02:00,
2013-04-02 17:07:00,47.6,12.5,30.24,North,349,7.0,11.0,24,0.00,,,0.00,Wunderground v.1.15,2013-04-02 21:07:00,
2013-04-02 17:08:00,47.6,13.5,30.24,North,354,7.0,11.0,25,0.00,,,0.00,Wunderground v.1.15,2013-04-02 21:08:00,
2013-04-02 17:13:00,48.1,15.6,30.24,North,353,6.0,7.0,27,0.00,,,0.00,Wunderground v.1.15,2013-04-02 21:13:00,
2013-04-02 17:15:00,48.1,13.0,30.24,WNW,285,6.0,8.0,24,0.00,,,0.00,Wunderground v.1.15,2013-04-02 21:15:00,
2013-04-02 17:16:00,48.1,13.0,30.24,NW,323,6.0,8.0,24,0.00,,,0.00,Wunderground v.1.15,2013-04-02 21:16:00,
2013-04-02 17:21:00,48.2,14.9,30.24,NNW,337,6.0,10.0,26,0.00,,,0.00,Wunderground v.1.15,2013-04-02 21:21:00,
2013-04-02 17:22:00,48.2,14.0,30.24,NNW,330,7.0,10.0,25,0.00,,,0.00,Wunderground v.1.15,2013-04-02 21:22:00,
2013-04-02 17:27:00,47.9,12.8,30.24,West,275,7.0,10.0,24,0.00,,,0.00,Wunderground v.1.15,2013-04-02 21:27:00,
2013-04-02 17:30:00,47.9,13.7,30.24,NW,318,7.0,7.0,25,0.00,,,0.00,Wunderground v.1.15,2013-04-02 21:30:00,
2013-04-02 17:33:00,47.9,13.7,30.24,NW,304,6.0,10.0,25,0.00,,,0.00,Wunderground v.1.15,2013-04-02 21:33:00,
2013-04-02 17:34:00,48.1,13.9,30.24,WSW,247,6.0,10.0,25,0.00,,,0.00,Wunderground v.1.15,2013-04-02 21:34:00,
2013-04-02 17:40:00,48.5,13.3,30.24,WSW,240,5.0,5.0,24,0.00,,,0.00,Wunderground v.1.15,2013-04-02 21:40:00,
2013-04-02 17:42:00,48.4,13.2,30.24,WSW,241,5.0,5.0,24,0.00,,,0.00,Wunderground v.1.15,2013-04-02 21:42:00,
2013-04-02 17:43:00,48.4,13.2,30.24,West,281,4.0,5.0,24,0.00,,,0.00,Wunderground v.1.15,2013-04-02 21:43:00,
2013-04-02 17:45:00,48.5,14.2,30.24,WNW,287,3.0,5.0,25,0.00,,,0.00,Wunderground v.1.15,2013-04-02 21:45:00,
2013-04-02 17:48:00,48.5,13.3,30.24,North,359,3.0,6.0,24,0.00,,,0.00,Wunderground v.1.15,2013-04-02 21:48:00,
2013-04-02 17:50:00,48.5,14.2,30.24,NNW,344,4.0,7.0,25,0.00,,,0.00,Wunderground v.1.15,2013-04-02 21:50:00,
2013-04-02 17:54:00,48.1,13.0,30.24,NNW,329,6.0,9.0,24,0.00,,,0.00,Wunderground v.1.15,2013-04-02 21:54:00,
2013-04-02 17:58:00,47.9,13.7,30.24,WNW,289,7.0,11.0,25,0.00,,,0.00,Wunderground v.1.15,2013-04-02 21:58:00,
2013-04-02 17:59:00,47.9,12.8,30.24,WNW,288,7.0,11.0,24,0.00,,,0.00,Wunderground v.1.15,2013-04-02 21:59:00,
2013-04-02 18:03:00,47.9,11.8,30.24,NW,318,5.0,8.0,23,0.00,,,0.00,Wunderground v.1.15,2013-04-02 22:03:00,
2013-04-02 18:04:00,47.9,12.8,30.24,NW,311,5.0,8.0,24,0.00,,,0.00,Wunderground v.1.15,2013-04-02 22:04:00,
2013-04-02 18:07:00,47.8,12.7,30.24,NNW,328,6.0,8.0,24,0.00,,,0.00,Wunderground v.1.15,2013-04-02 22:07:00,
2013-04-02 18:09:00,47.6,13.5,30.24,NNW,328,6.0,8.0,25,0.00,,,0.00,Wunderground v.1.15,2013-04-02 22:09:00,
2013-04-02 18:11:00,47.6,13.5,30.24,North,352,6.0,6.0,25,0.00,,,0.00,Wunderground v.1.15,2013-04-02 22:11:00,
2013-04-02 18:14:00,47.6,13.5,30.24,NW,312,6.0,6.0,25,0.00,,,0.00,Wunderground v.1.15,2013-04-02 22:14:00,
2013-04-02 18:19:00,47.8,11.7,30.25,West,267,4.0,6.0,23,0.00,,,0.00,Wunderground v.1.15,2013-04-02 22:19:00,
2013-04-02 18:20:00,47.8,13.6,30.25,NW,326,4.0,4.0,25,0.00,,,0.00,Wunderground v.1.15,2013-04-02 22:20:00,
2013-04-02 18:21:00,47.8,12.7,30.25,North,0,4.0,5.0,24,0.00,,,0.00,Wunderground v.1.15,2013-04-02 22:21:00,
2013-04-02 18:26:00,47.6,13.5,30.25,North,354,5.0,8.0,25,0.00,,,0.00,Wunderground v.1.15,2013-04-02 22:26:00,
2013-04-02 18:27:00,47.5,12.4,30.25,NNW,340,5.0,8.0,24,0.00,,,0.00,Wunderground v.1.15,2013-04-02 22:27:00,
2013-04-02 18:28:00,47.5,12.4,30.25,NNW,336,6.0,8.0,24,0.00,,,0.00,Wunderground v.1.15,2013-04-02 22:28:00,
2013-04-02 18:32:00,47.3,14.1,30.25,NNW,335,6.0,9.0,26,0.00,,,0.00,Wunderground v.1.15,2013-04-02 22:32:00,
2013-04-02 18:34:00,47.3,13.2,30.25,NW,326,6.0,9.0,25,0.00,,,0.00,Wunderground v.1.15,2013-04-02 22:34:00,
2013-04-02 18:37:00,47.2,11.2,30.25,North,349,6.0,9.0,23,0.00,,,0.00,Wunderground v.1.15,2013-04-02 22:37:00,
2013-04-02 18:38:00,47.0,12.0,30.25,NW,305,6.0,10.0,24,0.00,,,0.00,Wunderground v.1.15,2013-04-02 22:38:00,
2013-04-02 18:42:00,46.9,12.9,30.25,WNW,296,6.0,6.0,25,0.00,,,0.00,Wunderground v.1.15,2013-04-02 22:42:00,
2013-04-02 18:44:00,46.9,13.7,30.25,NNW,339,6.0,7.0,26,0.00,,,0.00,Wunderground v.1.15,2013-04-02 22:44:00,
2013-04-02 18:48:00,46.9,11.9,30.25,WNW,295,6.0,8.0,24,0.00,,,0.00,Wunderground v.1.15,2013-04-02 22:48:00,
2013-04-02 18:49:00,46.7,11.8,30.25,North,0,6.0,8.0,24,0.00,,,0.00,Wunderground v.1.15,2013-04-02 22:49:00,
2013-04-02 18:53:00,46.7,11.8,30.25,WNW,302,5.0,6.0,24,0.00,,,0.00,Wunderground v.1.15,2013-04-02 22:53:00,
2013-04-02 18:54:00,46.7,12.7,30.25,NNW,346,5.0,10.0,25,0.00,,,0.00,Wunderground v.1.15,2013-04-02 22:54:00,
2013-04-02 18:58:00,46.6,11.7,30.25,NW,316,6.0,11.0,24,0.00,,,0.00,Wunderground v.1.15,2013-04-02 22:58:00,
2013-04-02 19:02:00,46.5,13.4,30.25,WNW,298,6.0,7.0,26,0.00,,,0.00,Wunderground v.1.15,2013-04-02 23:02:00,
2013-04-02 19:04:00,46.5,12.5,30.25,NW,304,7.0,9.0,25,0.00,,,0.00,Wunderground v.1.15,2013-04-02 23:04:00,
2013-04-02 19:09:00,46.3,11.4,30.25,NW,304,6.0,11.0,24,0.00,,,0.00,Wunderground v.1.15,2013-04-02 23:09:00,
2013-04-02 19:11:00,46.2,12.3,30.25,NNW,337,6.0,6.0,25,0.00,,,0.00,Wunderground v.1.15,2013-04-02 23:11:00,
2013-04-02 19:15:00,46.2,12.3,30.25,NW,322,6.0,8.0,25,0.00,,,0.00,Wunderground v.1.15,2013-04-02 23:15:00,
2013-04-02 19:16:00,46.2,12.3,30.25,NNW,336,6.0,8.0,25,0.00,,,0.00,Wunderground v.1.15,2013-04-02 23:16:00,
2013-04-02 19:18:00,46.0,10.2,30.25,WNW,291,6.0,8.0,23,0.00,,,0.00,Wunderground v.1.15,2013-04-02 23:18:00,
2013-04-02 19:21:00,45.9,12.9,30.25,NW,305,6.0,7.0,26,0.00,,,0.00,Wunderground v.1.15,2013-04-02 23:21:00,
2013-04-02 19:23:00,45.9,12.0,30.25,NW,325,6.0,7.0,25,0.00,,,0.00,Wunderground v.1.15,2013-04-02 23:23:00,
2013-04-02 19:26:00,45.9,11.1,30.25,NW,325,6.0,8.0,24,0.00,,,0.00,Wunderground v.1.15,2013-04-02 23:26:00,
2013-04-02 19:28:00,45.9,12.0,30.25,NW,311,6.0,8.0,25,0.00,,,0.00,Wunderground v.1.15,2013-04-02 23:28:00,
2013-04-02 19:29:00,45.9,12.0,30.25,NW,323,6.0,8.0,25,0.00,,,0.00,Wunderground v.1.15,2013-04-02 23:29:00,
2013-04-02 19:33:00,45.7,11.8,30.26,NW,316,5.0,5.0,25,0.00,,,0.00,Wunderground v.1.15,2013-04-02 23:33:00,
2013-04-02 19:34:00,45.7,13.6,30.26,NW,305,5.0,6.0,27,0.00,,,0.00,Wunderground v.1.15,2013-04-02 23:34:00,
2013-04-02 19:37:00,45.7,11.8,30.26,NW,325,5.0,8.0,25,0.00,,,0.00,Wunderground v.1.15,2013-04-02 23:37:00,
2013-04-02 19:40:00,45.6,11.7,30.26,NW,326,4.0,4.0,25,0.00,,,0.00,Wunderground v.1.15,2013-04-02 23:40:00,
2013-04-02 19:44:00,45.4,12.5,30.26,NW,323,5.0,9.0,26,0.00,,,0.00,Wunderground v.1.15,2013-04-02 23:44:00,
2013-04-02 19:45:00,45.3,13.2,30.26,NW,325,5.0,9.0,27,0.00,,,0.00,Wunderground v.1.15,2013-04-02 23:45:00,
2013-04-02 19:47:00,45.3,13.2,30.26,NW,323,4.0,9.0,27,0.00,,,0.00,Wunderground v.1.15,2013-04-02 23:47:00,
2013-04-02 19:49:00,45.1,12.2,30.26,WNW,288,4.0,9.0,26,0.00,,,0.00,Wunderground v.1.15,2013-04-02 23:49:00,
2013-04-02 19:53:00,44.8,11.9,30.26,NW,323,3.0,4.0,26,0.00,,,0.00,Wunderground v.1.15,2013-04-02 23:53:00,
2013-04-02 19:55:00,44.8,12.8,30.26,NNW,332,3.0,4.0,27,0.00,,,0.00,Wunderground v.1.15,2013-04-02 23:55:00,
2013-04-02 19:59:00,44.6,13.5,30.26,WNW,302,3.0,6.0,28,0.00,,,0.00,Wunderground v.1.15,2013-04-02 23:59:00,
2013-04-02 20:01:00,44.4,12.5,30.26,NW,318,4.0,7.0,27,0.00,,,0.00,Wunderground v.1.15,2013-04-03 00:01:00,
2013-04-02 20:04:00,44.3,13.2,30.26,NW,313,4.0,7.0,28,0.00,,,0.00,Wunderground v.1.15,2013-04-03 00:04:00,
2013-04-02 20:06:00,44.3,13.2,30.26,NNW,330,4.0,7.0,28,0.00,,,0.00,Wunderground v.1.15,2013-04-03 00:06:00,
2013-04-02 20:07:00,44.1,14.6,30.26,NNW,328,4.0,7.0,30,0.00,,,0.00,Wunderground v.1.15,2013-04-03 00:07:00,
2013-04-02 20:11:00,43.8,13.6,30.26,NW,322,4.0,4.0,29,0.00,,,0.00,Wunderground v.1.15,2013-04-03 00:11:00,
2013-04-02 20:13:00,43.8,13.6,30.26,NW,315,4.0,4.0,29,0.00,,,0.00,Wunderground v.1.15,2013-04-03 00:13:00,
2013-04-02 20:15:00,43.7,14.2,30.26,NW,322,3.0,6.0,30,0.00,,,0.00,Wunderground v.1.15,2013-04-03 00:15:00,
2013-04-02 20:20:00,43.4,13.2,30.26,NW,319,4.0,4.0,29,0.00,,,0.00,Wunderground v.1.15,2013-04-03 00:20:00,
2013-04-02 20:21:00,43.3,13.1,30.26,NNW,332,3.0,5.0,29,0.00,,,0.00,Wunderground v.1.15,2013-04-03 00:21:00,
2013-04-02 20:26:00,43.1,13.7,30.26,NNW,330,3.0,5.0,30,0.00,,,0.00,Wunderground v.1.15,2013-04-03 00:26:00,
2013-04-02 20:28:00,43.0,12.9,30.26,NNW,332,2.0,5.0,29,0.00,,,0.00,Wunderground v.1.15,2013-04-03 00:28:00,
2013-04-02 20:29:00,43.0,13.6,30.26,NNW,332,2.0,5.0,30,0.00,,,0.00,Wunderground v.1.15,2013-04-03 00:29:00,
2013-04-02 20:31:00,42.8,13.5,30.26,NW,323,2.0,3.0,30,0.00,,,0.00,Wunderground v.1.15,2013-04-03 00:31:00,
2013-04-02 20:33:00,42.7,12.6,30.26,NW,323,2.0,3.0,29,0.00,,,0.00,Wunderground v.1.15,2013-04-03 00:33:00,
2013-04-02 20:35:00,42.7,14.1,30.26,NW,326,2.0,3.0,31,0.00,,,0.00,Wunderground v.1.15,2013-04-03 00:35:00,
2013-04-02 20:39:00,42.4,13.9,30.26,NW,323,1.0,3.0,31,0.00,,,0.00,Wunderground v.1.15,2013-04-03 00:39:00,
2013-04-02 20:40:00,42.4,13.1,30.26,NW,323,1.0,1.0,30,0.00,,,0.00,Wunderground v.1.15,2013-04-03 00:40:00,
2013-04-02 20:44:00,42.3,13.0,30.26,NW,322,1.0,2.0,30,0.00,,,0.00,Wunderground v.1.15,2013-04-03 00:44:00,
2013-04-02 20:45:00,42.1,12.8,30.27,NW,322,1.0,3.0,30,0.00,,,0.00,Wunderground v.1.15,2013-04-03 00:45:00,
2013-04-02 20:46:00,42.1,12.8,30.27,NW,322,1.0,3.0,30,0.00,,,0.00,Wunderground v.1.15,2013-04-03 00:46:00,
2013-04-02 20:50:00,42.0,13.5,30.27,NW,318,1.0,1.0,31,0.00,,,0.00,Wunderground v.1.15,2013-04-03 00:50:00,
2013-04-02 20:53:00,41.8,13.3,30.27,NW,316,0.0,1.0,31,0.00,,,0.00,Wunderground v.1.15,2013-04-03 00:53:00,
2013-04-02 20:54:00,41.8,13.3,30.27,NW,316,0.0,1.0,31,0.00,,,0.00,Wunderground v.1.15,2013-04-03 00:54:00,
2013-04-02 20:57:00,41.7,13.2,30.27,NW,313,0.0,1.0,31,0.00,,,0.00,Wunderground v.1.15,2013-04-03 00:57:00,
2013-04-02 21:00:00,41.6,13.9,30.27,NW,306,0.0,0.0,32,0.00,,,0.00,Wunderground v.1.15,2013-04-03 01:00:00,
2013-04-02 21:03:00,41.6,13.9,30.27,NW,308,0.0,0.0,32,0.00,,,0.00,Wunderground v.1.15,2013-04-03 01:03:00,
2013-04-02 21:04:00,41.4,13.7,30.27,NW,306,0.0,0.0,32,0.00,,,0.00,Wunderground v.1.15,2013-04-03 01:04:00,
2013-04-02 21:08:00,41.3,13.6,30.27,NW,312,0.0,1.0,32,0.00,,,0.00,Wunderground v.1.15,2013-04-03 01:08:00,
2013-04-02 21:09:00,41.3,14.3,30.27,NW,312,0.0,1.0,33,0.00,,,0.00,Wunderground v.1.15,2013-04-03 01:09:00,
2013-04-02 21:14:00,41.1,14.8,30.27,NW,312,0.0,0.0,34,0.00,,,0.00,Wunderground v.1.15,2013-04-03 01:14:00,
2013-04-02 21:16:00,41.0,14.1,30.28,NW,312,0.0,0.0,33,0.00,,,0.00,Wunderground v.1.15,2013-04-03 01:16:00,
2013-04-02 21:17:00,41.0,14.1,30.28,NW,312,0.0,0.0,33,0.00,,,0.00,Wunderground v.1.15,2013-04-03 01:17:00,
2013-04-02 21:22:00,40.7,13.8,30.28,NW,312,0.0,0.0,33,0.00,,,0.00,Wunderground v.1.15,2013-04-03 01:22:00,
2013-04-02 21:24:00,40.7,13.8,30.28,NW,312,0.0,0.0,33,0.00,,,0.00,Wunderground v.1.15,2013-04-03 01:24:00,
2013-04-02 21:27:00,40.6,15.0,30.28,NW,312,0.0,0.0,35,0.00,,,0.00,Wunderground v.1.15,2013-04-03 01:27:00,
2013-04-02 21:29:00,40.4,15.5,30.28,NW,312,0.0,0.0,36,0.00,,,0.00,Wunderground v.1.15,2013-04-03 01:29:00,
2013-04-02 21:30:00,40.3,14.8,30.28,NW,312,0.0,0.0,35,0.00,,,0.00,Wunderground v.1.15,2013-04-03 01:30:00,
2013-04-02 21:35:00,40.0,17.0,30.28,NW,325,0.0,0.0,39,0.00,,,0.00,Wunderground v.1.15,2013-04-03 01:35:00,
2013-04-02 21:36:00,39.8,17.4,30.28,NW,326,0.0,2.0,40,0.00,,,0.00,Wunderground v.1.15,2013-04-03 01:36:00,
2013-04-02 21:37:00,39.8,16.8,30.28,NW,326,0.0,2.0,39,0.00,,,0.00,Wunderground v.1.15,2013-04-03 01:37:00,
2013-04-02 21:42:00,39.3,17.0,30.28,NW,326,0.0,0.0,40,0.00,,,0.00,Wunderground v.1.15,2013-04-03 01:42:00,
2013-04-02 21:43:00,39.3,17.0,30.28,NW,326,0.0,0.0,40,0.00,,,0.00,Wunderground v.1.15,2013-04-03 01:43:00,
2013-04-02 21:48:00,38.7,16.4,30.29,NW,326,0.0,0.0,40,0.00,,,0.00,Wunderground v.1.15,2013-04-03 01:48:00,
2013-04-02 21:49:00,38.7,17.0,30.29,NW,326,0.0,0.0,41,0.00,,,0.00,Wunderground v.1.15,2013-04-03 01:49:00,
2013-04-02 21:53:00,38.3,17.7,30.29,NW,326,0.0,0.0,43,0.00,,,0.00,Wunderground v.1.15,2013-04-03 01:53:00,
2013-04-02 21:56:00,38.0,17.5,30.29,NW,326,0.0,0.0,43,0.00,,,0.00,Wunderground v.1.15,2013-04-03 01:56:00,
2013-04-02 21:57:00,38.0,16.9,30.29,NW,326,0.0,0.0,42,0.00,,,0.00,Wunderground v.1.15,2013-04-03 01:57:00,
2013-04-02 22:03:00,37.4,16.9,30.30,NW,326,0.0,0.0,43,0.00,,,0.00,Wunderground v.1.15,2013-04-03 02:03:00,
2013-04-02 22:04:00,37.3,16.8,30.30,NW,326,0.0,0.0,43,0.00,,,0.00,Wunderground v.1.15,2013-04-03 02:04:00,
2013-04-02 22:05:00,37.1,16.6,30.30,NW,326,0.0,0.0,43,0.00,,,0.00,Wunderground v.1.15,2013-04-03 02:05:00,
2013-04-02 22:10:00,36.7,17.8,30.30,NW,326,0.0,0.0,46,0.00,,,0.00,Wunderground v.1.15,2013-04-03 02:10:00,
2013-04-02 22:11:00,36.5,17.7,30.30,NW,326,0.0,0.0,46,0.00,,,0.00,Wunderground v.1.15,2013-04-03 02:11:00,
2013-04-02 22:13:00,36.4,18.1,30.30,NW,326,0.0,0.0,47,0.00,,,0.00,Wunderground v.1.15,2013-04-03 02:13:00,
2013-04-02 22:17:00,36.0,17.2,30.30,NW,326,0.0,0.0,46,0.00,,,0.00,Wunderground v.1.15,2013-04-03 02:17:00,
2013-04-02 22:18:00,35.8,17.0,30.30,NW,326,0.0,0.0,46,0.00,,,0.00,Wunderground v.1.15,2013-04-03 02:18:00,
2013-04-02 22:20:00,35.4,17.1,30.30,NW,326,0.0,0.0,47,0.00,,,0.00,Wunderground v.1.15,2013-04-03 02:20:00,
2013-04-02 22:23:00,34.9,16.7,30.30,NW,326,0.0,0.0,47,0.00,,,0.00,Wunderground v.1.15,2013-04-03 02:23:00,
2013-04-02 22:27:00,34.6,17.8,30.30,NW,326,0.0,0.0,50,0.00,,,0.00,Wunderground v.1.15,2013-04-03 02:27:00,
2013-04-02 22:29:00,34.3,18.0,30.30,NW,326,0.0,0.0,51,0.00,,,0.00,Wunderground v.1.15,2013-04-03 02:29:00,
2013-04-02 22:32:00,34.2,18.8,30.30,NW,326,0.0,0.0,53,0.00,,,0.00,Wunderground v.1.15,2013-04-03 02:32:00,
2013-04-02 22:34:00,34.2,19.3,30.30,NW,326,0.0,0.0,54,0.00,,,0.00,Wunderground v.1.15,2013-04-03 02:34:00,
2013-04-02 22:38:00,33.9,19.4,30.30,NW,326,0.0,0.0,55,0.00,,,0.00,Wunderground v.1.15,2013-04-03 02:38:00,
2013-04-02 22:40:00,33.7,19.7,30.30,NW,326,0.0,0.0,56,0.00,,,0.00,Wunderground v.1.15,2013-04-03 02:40:00,
2013-04-02 22:44:00,33.6,20.0,30.30,NW,326,0.0,0.0,57,0.00,,,0.00,Wunderground v.1.15,2013-04-03 02:44:00,
2013-04-02 22:46:00,33.4,20.2,30.31,NW,326,0.0,0.0,58,0.00,,,0.00,Wunderground v.1.15,2013-04-03 02:46:00,
2013-04-02 22:49:00,33.3,20.5,30.31,NW,326,0.0,0.0,59,0.00,,,0.00,Wunderground v.1.15,2013-04-03 02:49:00,
2013-04-02 22:51:00,33.3,20.9,30.31,NW,326,0.0,0.0,60,0.00,,,0.00,Wunderground v.1.15,2013-04-03 02:51:00,
2013-04-02 22:57:00,33.0,20.6,30.31,NW,326,0.0,0.0,60,0.00,,,0.00,Wunderground v.1.15,2013-04-03 02:57:00,
2013-04-02 22:59:00,32.9,20.5,30.31,NW,326,0.0,0.0,60,0.00,,,0.00,Wunderground v.1.15,2013-04-03 02:59:00,
2013-04-02 23:01:00,32.9,20.5,30.31,NW,326,0.0,0.0,60,0.00,,,0.00,Wunderground v.1.15,2013-04-03 03:01:00,
2013-04-02 23:02:00,32.7,20.3,30.31,NW,326,0.0,0.0,60,0.00,,,0.00,Wunderground v.1.15,2013-04-03 03:02:00,
2013-04-02 23:04:00,32.7,20.3,30.31,NW,326,0.0,0.0,60,0.00,,,0.00,Wunderground v.1.15,2013-04-03 03:04:00,
2013-04-02 23:08:00,32.4,20.0,30.31,NW,326,0.0,0.0,60,0.00,,,0.00,Wunderground v.1.15,2013-04-03 03:08:00,
2013-04-02 23:10:00,32.4,20.4,30.31,NW,326,0.0,0.0,61,0.00,,,0.00,Wunderground v.1.15,2013-04-03 03:10:00,
2013-04-02 23:13:00,32.3,20.3,30.31,NW,326,0.0,0.0,61,0.00,,,0.00,Wunderground v.1.15,2013-04-03 03:13:00,
2013-04-02 23:17:00,32.1,20.2,30.31,NW,326,0.0,0.0,61,0.00,,,0.00,Wunderground v.1.15,2013-04-03 03:17:00,
2013-04-02 23:19:00,32.0,20.4,30.31,NW,326,0.0,0.0,62,0.00,,,0.00,Wunderground v.1.15,2013-04-03 03:19:00,
2013-04-02 23:24:00,31.8,20.3,30.31,NW,326,0.0,0.0,62,0.00,,,0.00,Wunderground v.1.15,2013-04-03 03:24:00,
2013-04-02 23:26:00,31.7,20.2,30.31,NW,326,0.0,0.0,62,0.00,,,0.00,Wunderground v.1.15,2013-04-03 03:26:00,
2013-04-02 23:27:00,31.7,20.5,30.31,NW,326,0.0,0.0,63,0.00,,,0.00,Wunderground v.1.15,2013-04-03 03:27:00,
2013-04-02 23:31:00,31.5,20.3,30.31,NW,326,0.0,0.0,63,0.00,,,0.00,Wunderground v.1.15,2013-04-03 03:31:00,
2013-04-02 23:34:00,31.4,20.2,30.31,NW,326,0.0,0.0,63,0.00,,,0.00,Wunderground v.1.15,2013-04-03 03:34:00,
2013-04-02 23:40:00,31.2,20.1,30.31,NW,326,0.0,0.0,63,0.00,,,0.00,Wunderground v.1.15,2013-04-03 03:40:00,
2013-04-02 23:41:00,31.2,20.4,30.31,NW,326,0.0,0.0,64,0.00,,,0.00,Wunderground v.1.15,2013-04-03 03:41:00,
2013-04-02 23:44:00,31.1,20.3,30.31,NW,326,0.0,0.0,64,0.00,,,0.00,Wunderground v.1.15,2013-04-03 03:44:00,
2013-04-02 23:47:00,31.1,20.3,30.31,NW,326,0.0,0.0,64,0.00,,,0.00,Wunderground v.1.15,2013-04-03 03:47:00,
2013-04-02 23:50:00,30.9,20.5,30.31,NW,326,0.0,0.0,65,0.00,,,0.00,Wunderground v.1.15,2013-04-03 03:50:00,
2013-04-02 23:52:00,30.9,20.5,30.31,NW,326,0.0,0.0,65,0.00,,,0.00,Wunderground v.1.15,2013-04-03 03:52:00,
2013-04-02 23:56:00,30.8,20.4,30.31,NW,326,0.0,0.0,65,0.00,,,0.00,Wunderground v.1.15,2013-04-03 03:56:00,
2013-04-02 23:58:00,30.6,20.2,30.31,NW,326,0.0,0.0,65,0.00,,,0.00,Wunderground v.1.15,2013-04-03 03:58:00,
2013-04-02 23:59:00,30.6,20.6,30.31,NW,326,0.0,0.0,66,0.00,,,0.00,Wunderground v.1.15,2013-04-03 03:59:00,